Time,TemperatureF,DewpointF,PressureIn,WindDirection,WindDirectionDegrees,WindSpeedMPH,WindSpeedGustMPH,Humidity,HourlyPrecipIn,Conditions,Clouds,dailyrainin,SoftwareType,DateUTC
2013-02-16 00:00:00,41.7,40.1,30.18,ESE,112,0.0,2.5,94,0.00,,CLR,0.00,VWS V14.00,2013-02-16 08:00:00,
2013-02-16 00:01:00,41.7,40.1,30.18,ESE,112,0.0,2.5,94,0.00,,CLR,0.00,VWS V14.00,2013-02-16 08:01:00,
2013-02-16 00:04:00,41.7,40.1,30.18,East,90,0.0,0.0,94,0.00,,CLR,0.00,VWS V14.00,2013-02-16 08:04:00,
2013-02-16 00:05:00,41.7,40.1,30.18,SSE,158,0.0,0.0,94,0.00,,CLR,0.00,VWS V14.00,2013-02-16 08:05:00,
2013-02-16 00:06:00,41.7,40.1,30.18,ESE,112,0.0,0.0,94,0.00,,CLR,0.00,VWS V14.00,2013-02-16 08:06:00,
2013-02-16 00:09:00,41.7,40.1,30.18,East,90,0.0,0.0,94,0.00,,CLR,0.00,VWS V14.00,2013-02-16 08:09:00,
2013-02-16 00:11:00,41.7,40.1,30.18,East,90,0.0,0.0,94,0.00,,CLR,0.00,VWS V14.00,2013-02-16 08:11:00,
2013-02-16 00:14:00,42.1,40.8,30.18,WNW,292,0.0,0.0,95,0.00,,CLR,0.00,VWS V14.00,2013-02-16 08:14:00,
2013-02-16 00:16:00,42.1,40.8,30.18,ESE,112,1.6,1.6,95,0.00,,CLR,0.00,VWS V14.00,2013-02-16 08:16:00,
2013-02-16 00:19:00,42.1,40.8,30.18,East,90,2.5,2.5,95,0.00,,CLR,0.00,VWS V14.00,2013-02-16 08:19:00,
2013-02-16 00:21:00,42.1,40.8,30.18,East,90,0.0,2.5,95,0.00,,CLR,0.00,VWS V14.00,2013-02-16 08:21:00,
2013-02-16 00:24:00,41.9,40.6,30.18,ESE,112,0.0,2.5,95,0.00,,CLR,0.00,VWS V14.00,2013-02-16 08:24:00,
2013-02-16 00:26:00,41.9,40.6,30.18,WSW,248,0.0,2.5,95,0.00,,CLR,0.00,VWS V14.00,2013-02-16 08:26:00,
2013-02-16 00:29:00,41.7,40.4,30.21,WSW,248,0.0,2.5,95,0.00,,CLR,0.00,VWS V14.00,2013-02-16 08:29:00,
2013-02-16 00:31:00,41.7,40.4,30.21,West,270,0.0,2.5,95,0.00,,CLR,0.00,VWS V14.00,2013-02-16 08:31:00,
2013-02-16 00:34:00,41.7,40.4,30.21,WNW,292,2.9,2.9,95,0.00,,CLR,0.00,VWS V14.00,2013-02-16 08:34:00,
2013-02-16 00:36:00,41.5,40.2,30.21,SW,225,1.1,3.4,95,0.00,,CLR,0.00,VWS V14.00,2013-02-16 08:36:00,
2013-02-16 00:39:00,41.5,40.2,30.21,WSW,248,0.0,3.4,95,0.00,,CLR,0.00,VWS V14.00,2013-02-16 08:39:00,
2013-02-16 00:41:00,41.4,40.0,30.21,ESE,112,0.0,3.4,95,0.00,,CLR,0.00,VWS V14.00,2013-02-16 08:41:00,
2013-02-16 00:44:00,41.5,40.2,30.21,ESE,112,0.0,3.4,95,0.00,,CLR,0.00,VWS V14.00,2013-02-16 08:44:00,
2013-02-16 00:46:00,41.7,40.7,30.21,SSE,158,0.0,3.4,96,0.00,,CLR,0.00,VWS V14.00,2013-02-16 08:46:00,
2013-02-16 00:49:00,41.7,40.7,30.21,WNW,292,0.0,3.4,96,0.00,,CLR,0.00,VWS V14.00,2013-02-16 08:49:00,
2013-02-16 00:51:00,41.9,40.8,30.21,SSW,202,1.3,3.4,96,0.00,,CLR,0.00,VWS V14.00,2013-02-16 08:51:00,
2013-02-16 00:54:00,41.9,40.8,30.21,East,90,0.0,1.3,96,0.00,,CLR,0.00,VWS V14.00,2013-02-16 08:54:00,
2013-02-16 00:56:00,41.9,40.8,30.21,East,90,0.0,1.3,96,0.00,,CLR,0.00,VWS V14.00,2013-02-16 08:56:00,
2013-02-16 00:59:00,42.1,41.0,30.21,ESE,112,0.0,1.3,96,0.00,,CLR,0.00,VWS V14.00,2013-02-16 08:59:00,
2013-02-16 01:01:00,42.1,41.0,30.21,ENE,68,2.5,2.5,96,0.00,,CLR,0.00,VWS V14.00,2013-02-16 09:01:00,
2013-02-16 01:04:00,41.7,40.7,30.21,East,90,0.0,2.5,96,0.00,,CLR,0.00,VWS V14.00,2013-02-16 09:04:00,
2013-02-16 01:06:00,41.7,40.7,30.21,East,90,0.0,2.5,96,0.00,,CLR,0.00,VWS V14.00,2013-02-16 09:06:00,
2013-02-16 01:09:00,41.5,40.5,30.21,ENE,68,0.0,2.5,96,0.00,,CLR,0.00,VWS V14.00,2013-02-16 09:09:00,
2013-02-16 01:11:00,41.4,40.3,30.21,ENE,68,0.0,2.5,96,0.00,,CLR,0.00,VWS V14.00,2013-02-16 09:11:00,
2013-02-16 01:12:00,41.4,40.3,30.21,ENE,68,0.0,2.5,96,0.00,,CLR,0.00,VWS V14.00,2013-02-16 09:12:00,
2013-02-16 01:15:00,41.2,40.1,30.24,ENE,68,0.0,2.5,96,0.00,,CLR,0.00,VWS V14.00,2013-02-16 09:15:00,
2013-02-16 01:17:00,41.4,40.3,30.24,ENE,68,0.0,2.5,96,0.00,,CLR,0.00,VWS V14.00,2013-02-16 09:17:00,
2013-02-16 01:20:00,41.2,40.1,30.24,ESE,112,0.0,1.3,96,0.00,,CLR,0.00,VWS V14.00,2013-02-16 09:20:00,
2013-02-16 01:22:00,41.4,40.3,30.24,ESE,112,0.0,1.3,96,0.00,,CLR,0.00,VWS V14.00,2013-02-16 09:22:00,
2013-02-16 01:25:00,41.5,40.5,30.24,ESE,112,0.0,1.3,96,0.00,,CLR,0.00,VWS V14.00,2013-02-16 09:25:00,
2013-02-16 01:27:00,41.5,40.5,30.24,ESE,112,0.0,1.3,96,0.00,,CLR,0.00,VWS V14.00,2013-02-16 09:27:00,
2013-02-16 01:30:00,41.5,40.5,30.21,ESE,112,0.0,1.3,96,0.00,,CLR,0.00,VWS V14.00,2013-02-16 09:30:00,
2013-02-16 01:32:00,41.5,40.5,30.21,ESE,112,0.0,0.0,96,0.00,,CLR,0.00,VWS V14.00,2013-02-16 09:32:00,
2013-02-16 01:35:00,41.5,40.8,30.21,ESE,112,0.0,0.0,97,0.00,,CLR,0.00,VWS V14.00,2013-02-16 09:35:00,
2013-02-16 01:37:00,41.4,40.6,30.21,ESE,112,0.0,0.0,97,0.00,,CLR,0.00,VWS V14.00,2013-02-16 09:37:00,
2013-02-16 01:40:00,41.5,40.8,30.21,ESE,112,0.0,0.0,97,0.00,,CLR,0.00,VWS V14.00,2013-02-16 09:40:00,
2013-02-16 01:42:00,41.5,40.8,30.21,ESE,112,0.0,0.0,97,0.00,,CLR,0.00,VWS V14.00,2013-02-16 09:42:00,
2013-02-16 01:45:00,41.5,40.8,30.21,ESE,112,0.0,0.0,97,0.00,,CLR,0.00,VWS V14.00,2013-02-16 09:45:00,
2013-02-16 01:47:00,41.5,40.8,30.21,ESE,112,0.0,0.0,97,0.00,,CLR,0.00,VWS V14.00,2013-02-16 09:47:00,
2013-02-16 01:50:00,41.7,40.9,30.21,SSE,158,0.0,0.0,97,0.00,,CLR,0.00,VWS V14.00,2013-02-16 09:50:00,
2013-02-16 01:52:00,41.7,40.9,30.21,ESE,112,0.0,0.0,97,0.00,,CLR,0.00,VWS V14.00,2013-02-16 09:52:00,
2013-02-16 01:53:00,41.7,40.9,30.21,ESE,112,0.0,0.0,97,0.00,,CLR,0.00,VWS V14.00,2013-02-16 09:53:00,
2013-02-16 01:55:00,41.5,40.8,30.21,SE,135,0.0,0.0,97,0.00,,CLR,0.00,VWS V14.00,2013-02-16 09:55:00,
2013-02-16 01:57:00,41.7,40.9,30.21,ESE,112,0.0,0.0,97,0.00,,CLR,0.00,VWS V14.00,2013-02-16 09:57:00,
2013-02-16 01:58:00,41.7,40.9,30.21,ESE,112,0.0,0.0,97,0.00,,CLR,0.00,VWS V14.00,2013-02-16 09:58:00,
2013-02-16 02:00:00,41.7,40.9,30.21,NW,315,4.3,4.3,97,0.00,,CLR,0.00,VWS V14.00,2013-02-16 10:00:00,
2013-02-16 02:02:00,41.2,40.4,30.21,SW,225,3.4,4.3,97,0.00,,CLR,0.00,VWS V14.00,2013-02-16 10:02:00,
2013-02-16 02:03:00,41.2,40.4,30.21,NW,315,2.2,4.3,97,0.00,,CLR,0.00,VWS V14.00,2013-02-16 10:03:00,
2013-02-16 02:05:00,41.2,40.4,30.21,SSW,202,0.0,4.3,97,0.00,,CLR,0.00,VWS V14.00,2013-02-16 10:05:00,
2013-02-16 02:07:00,41.0,40.2,30.21,ENE,68,0.0,4.3,97,0.00,,CLR,0.00,VWS V14.00,2013-02-16 10:07:00,
2013-02-16 02:08:00,41.0,40.2,30.21,ESE,112,0.0,4.3,97,0.00,,CLR,0.00,VWS V14.00,2013-02-16 10:08:00,
2013-02-16 02:10:00,41.0,40.2,30.21,WSW,248,0.0,4.3,97,0.00,,CLR,0.00,VWS V14.00,2013-02-16 10:10:00,
2013-02-16 02:12:00,41.0,40.2,30.21,East,90,0.0,4.3,97,0.00,,CLR,0.00,VWS V14.00,2013-02-16 10:12:00,
2013-02-16 02:13:00,41.0,40.2,30.21,East,90,0.0,4.3,97,0.00,,CLR,0.00,VWS V14.00,2013-02-16 10:13:00,
2013-02-16 02:15:00,41.0,40.2,30.21,East,90,0.0,4.3,97,0.00,,CLR,0.00,VWS V14.00,2013-02-16 10:15:00,
2013-02-16 02:17:00,41.0,40.2,30.21,WSW,248,0.0,4.3,97,0.00,,CLR,0.00,VWS V14.00,2013-02-16 10:17:00,
2013-02-16 02:18:00,41.0,40.2,30.21,East,90,0.0,3.4,97,0.00,,CLR,0.00,VWS V14.00,2013-02-16 10:18:00,
2013-02-16 02:20:00,41.0,40.2,30.21,WNW,292,0.0,0.9,97,0.00,,CLR,0.00,VWS V14.00,2013-02-16 10:20:00,
2013-02-16 02:22:00,41.0,40.2,30.21,WNW,292,1.3,1.3,97,0.00,,CLR,0.00,VWS V14.00,2013-02-16 10:22:00,
2013-02-16 02:23:00,41.0,40.2,30.21,West,270,0.0,1.3,97,0.00,,CLR,0.00,VWS V14.00,2013-02-16 10:23:00,
2013-02-16 02:25:00,40.8,40.0,30.21,ENE,68,0.0,1.3,97,0.00,,CLR,0.00,VWS V14.00,2013-02-16 10:25:00,
2013-02-16 02:27:00,41.0,40.2,30.21,SSW,202,0.0,1.3,97,0.00,,CLR,0.00,VWS V14.00,2013-02-16 10:27:00,
2013-02-16 02:28:00,41.0,40.2,30.21,WSW,248,0.0,1.3,97,0.00,,CLR,0.00,VWS V14.00,2013-02-16 10:28:00,
2013-02-16 02:30:00,41.0,40.2,30.21,NNW,338,0.0,1.3,97,0.00,,CLR,0.00,VWS V14.00,2013-02-16 10:30:00,
2013-02-16 02:32:00,41.2,40.4,30.21,ESE,112,0.0,1.3,97,0.00,,CLR,0.00,VWS V14.00,2013-02-16 10:32:00,
2013-02-16 02:33:00,41.2,40.4,30.21,SSE,158,1.1,1.3,97,0.00,,CLR,0.00,VWS V14.00,2013-02-16 10:33:00,
2013-02-16 02:35:00,41.4,40.6,30.21,ENE,68,0.0,1.3,97,0.00,,CLR,0.00,VWS V14.00,2013-02-16 10:35:00,
2013-02-16 02:37:00,41.4,40.6,30.21,East,90,1.3,2.5,97,0.00,,CLR,0.00,VWS V14.00,2013-02-16 10:37:00,
2013-02-16 02:38:00,41.4,40.6,30.21,East,90,1.3,2.5,97,0.00,,CLR,0.00,VWS V14.00,2013-02-16 10:38:00,
2013-02-16 02:40:00,41.5,40.8,30.21,East,90,0.0,2.5,97,0.00,,CLR,0.00,VWS V14.00,2013-02-16 10:40:00,
2013-02-16 02:42:00,41.5,40.8,30.21,North,0,0.0,2.5,97,0.00,,CLR,0.00,VWS V14.00,2013-02-16 10:42:00,
2013-02-16 02:43:00,41.5,40.8,30.21,North,0,0.0,2.5,97,0.00,,CLR,0.00,VWS V14.00,2013-02-16 10:43:00,
2013-02-16 02:45:00,41.5,40.8,30.21,East,90,3.4,3.4,97,0.00,,CLR,0.00,VWS V14.00,2013-02-16 10:45:00,
2013-02-16 02:47:00,41.5,40.8,30.21,East,90,0.0,3.4,97,0.00,,CLR,0.00,VWS V14.00,2013-02-16 10:47:00,
2013-02-16 02:48:00,41.2,40.4,30.21,East,90,0.0,3.4,97,0.00,,BKN030,0.00,VWS V14.00,2013-02-16 10:48:00,
2013-02-16 02:50:00,41.0,40.2,30.21,East,90,2.7,3.4,97,0.00,,BKN030,0.00,VWS V14.00,2013-02-16 10:50:00,
2013-02-16 02:52:00,41.0,40.2,30.21,East,90,2.5,3.4,97,0.00,,BKN030,0.00,VWS V14.00,2013-02-16 10:52:00,
2013-02-16 02:53:00,41.0,40.2,30.21,East,90,2.5,3.4,97,0.00,,BKN030,0.00,VWS V14.00,2013-02-16 10:53:00,
2013-02-16 02:55:00,40.8,40.0,30.21,East,90,2.2,3.4,97,0.00,,BKN030,0.00,VWS V14.00,2013-02-16 10:55:00,
2013-02-16 02:57:00,40.8,40.0,30.21,ENE,68,0.0,3.4,97,0.00,,BKN030,0.00,VWS V14.00,2013-02-16 10:57:00,
2013-02-16 02:58:00,40.8,40.0,30.21,ESE,112,0.0,3.4,97,0.00,,BKN030,0.00,VWS V14.00,2013-02-16 10:58:00,
2013-02-16 03:00:00,41.0,40.2,30.21,ESE,112,0.0,3.4,97,0.00,,BKN030,0.00,VWS V14.00,2013-02-16 11:00:00,
2013-02-16 03:02:00,41.2,40.4,30.21,ESE,112,0.0,3.1,97,0.00,,BKN030,0.00,VWS V14.00,2013-02-16 11:02:00,
2013-02-16 03:03:00,41.2,40.4,30.21,ESE,112,0.0,3.1,97,0.00,,BKN030,0.00,VWS V14.00,2013-02-16 11:03:00,
2013-02-16 03:05:00,41.2,40.4,30.21,ESE,112,0.0,3.1,97,0.00,,BKN030,0.00,VWS V14.00,2013-02-16 11:05:00,
2013-02-16 03:07:00,41.2,40.4,30.21,ESE,112,0.0,3.1,97,0.00,,BKN030,0.00,VWS V14.00,2013-02-16 11:07:00,
2013-02-16 03:08:00,41.4,40.6,30.21,ESE,112,0.0,3.1,97,0.00,,BKN030,0.00,VWS V14.00,2013-02-16 11:08:00,
2013-02-16 03:10:00,41.4,40.6,30.21,West,270,0.0,2.2,97,0.00,,BKN030,0.00,VWS V14.00,2013-02-16 11:10:00,
2013-02-16 03:12:00,41.4,40.6,30.21,West,270,0.0,0.9,97,0.00,,BKN030,0.00,VWS V14.00,2013-02-16 11:12:00,
2013-02-16 03:13:00,41.5,40.8,30.21,SW,225,0.0,0.9,97,0.00,,BKN030,0.00,VWS V14.00,2013-02-16 11:13:00,
2013-02-16 03:15:00,41.5,40.8,30.21,SE,135,0.0,0.9,97,0.00,,BKN030,0.00,VWS V14.00,2013-02-16 11:15:00,
2013-02-16 03:17:00,41.5,40.8,30.21,ESE,112,0.0,0.9,97,0.00,,BKN030,0.00,VWS V14.00,2013-02-16 11:17:00,
2013-02-16 03:18:00,41.5,40.8,30.21,ESE,112,0.0,0.9,97,0.00,,BKN030,0.00,VWS V14.00,2013-02-16 11:18:00,
2013-02-16 03:20:00,41.5,40.8,30.21,SSE,158,0.0,0.9,97,0.00,,BKN030,0.00,VWS V14.00,2013-02-16 11:20:00,
2013-02-16 03:22:00,41.7,41.2,30.21,WSW,248,0.0,0.9,98,0.00,,BKN030,0.00,VWS V14.00,2013-02-16 11:22:00,
2013-02-16 03:23:00,41.7,41.2,30.21,ESE,112,0.0,0.9,98,0.00,,BKN030,0.00,VWS V14.00,2013-02-16 11:23:00,
2013-02-16 03:25:00,41.9,41.4,30.21,ESE,112,0.0,0.9,98,0.00,,BKN030,0.00,VWS V14.00,2013-02-16 11:25:00,
2013-02-16 03:27:00,41.9,41.4,30.21,ESE,112,0.0,0.9,98,0.00,,BKN030,0.00,VWS V14.00,2013-02-16 11:27:00,
2013-02-16 03:28:00,41.9,41.4,30.21,ESE,112,0.0,0.0,98,0.00,,BKN030,0.00,VWS V14.00,2013-02-16 11:28:00,
2013-02-16 03:30:00,41.9,41.4,30.21,ESE,112,0.0,0.0,98,0.00,,BKN030,0.00,VWS V14.00,2013-02-16 11:30:00,
2013-02-16 03:32:00,42.1,41.6,30.21,ESE,112,0.0,0.0,98,0.00,,OVC028,0.00,VWS V14.00,2013-02-16 11:32:00,
2013-02-16 03:33:00,42.1,41.6,30.21,ESE,112,0.0,0.0,98,0.00,,OVC028,0.00,VWS V14.00,2013-02-16 11:33:00,
2013-02-16 03:35:00,42.1,41.6,30.21,ESE,112,0.0,0.0,98,0.00,,OVC028,0.00,VWS V14.00,2013-02-16 11:35:00,
2013-02-16 03:37:00,42.1,41.6,30.21,ESE,112,0.0,0.0,98,0.00,,OVC028,0.00,VWS V14.00,2013-02-16 11:37:00,
2013-02-16 03:38:00,42.1,41.6,30.21,ESE,112,0.0,0.0,98,0.00,,OVC028,0.00,VWS V14.00,2013-02-16 11:38:00,
2013-02-16 03:40:00,42.3,41.7,30.21,ESE,112,0.0,0.0,98,0.00,,OVC028,0.00,VWS V14.00,2013-02-16 11:40:00,
2013-02-16 03:42:00,42.3,41.7,30.21,ESE,112,0.0,0.0,98,0.00,,OVC028,0.00,VWS V14.00,2013-02-16 11:42:00,
2013-02-16 03:43:00,42.3,41.7,30.21,ESE,112,0.0,0.0,98,0.00,,OVC028,0.00,VWS V14.00,2013-02-16 11:43:00,
2013-02-16 03:45:00,42.3,41.7,30.24,East,90,0.0,0.0,98,0.00,,OVC028,0.00,VWS V14.00,2013-02-16 11:45:00,
2013-02-16 03:47:00,42.3,41.7,30.24,East,90,0.0,0.0,98,0.00,,OVC028,0.00,VWS V14.00,2013-02-16 11:47:00,
2013-02-16 03:48:00,42.3,41.7,30.24,East,90,0.0,0.0,98,0.00,,OVC028,0.00,VWS V14.00,2013-02-16 11:48:00,
2013-02-16 03:50:00,42.4,41.9,30.24,East,90,0.0,0.0,98,0.00,,OVC028,0.00,VWS V14.00,2013-02-16 11:50:00,
2013-02-16 03:52:00,42.4,41.9,30.24,East,90,0.0,0.0,98,0.00,,OVC028,0.00,VWS V14.00,2013-02-16 11:52:00,
2013-02-16 03:53:00,42.4,41.9,30.24,East,90,0.0,0.0,98,0.00,,OVC028,0.00,VWS V14.00,2013-02-16 11:53:00,
2013-02-16 03:55:00,42.4,41.9,30.24,East,90,0.0,0.0,98,0.00,,OVC028,0.00,VWS V14.00,2013-02-16 11:55:00,
2013-02-16 03:57:00,42.4,41.9,30.24,East,90,0.0,0.0,98,0.00,,OVC028,0.00,VWS V14.00,2013-02-16 11:57:00,
2013-02-16 03:58:00,42.4,41.9,30.24,East,90,0.0,0.0,98,0.00,,OVC028,0.00,VWS V14.00,2013-02-16 11:58:00,
2013-02-16 04:00:00,42.4,41.9,30.24,East,90,0.0,0.0,98,0.00,,OVC028,0.00,VWS V14.00,2013-02-16 12:00:00,
2013-02-16 04:02:00,42.6,42.1,30.24,East,90,0.0,0.0,98,0.00,,OVC028,0.00,VWS V14.00,2013-02-16 12:02:00,
2013-02-16 04:03:00,42.6,42.1,30.24,East,90,0.0,0.0,98,0.00,,OVC028,0.00,VWS V14.00,2013-02-16 12:03:00,
2013-02-16 04:05:00,42.4,41.9,30.24,East,90,0.0,0.0,98,0.00,,OVC028,0.00,VWS V14.00,2013-02-16 12:05:00,
2013-02-16 04:07:00,42.4,41.9,30.24,East,90,0.0,0.0,98,0.00,,OVC028,0.00,VWS V14.00,2013-02-16 12:07:00,
2013-02-16 04:08:00,42.4,41.9,30.24,East,90,0.0,0.0,98,0.00,,OVC028,0.00,VWS V14.00,2013-02-16 12:08:00,
2013-02-16 04:10:00,42.4,41.9,30.24,East,90,0.0,0.0,98,0.00,,OVC028,0.00,VWS V14.00,2013-02-16 12:10:00,
2013-02-16 04:13:00,42.4,41.9,30.24,East,90,0.0,0.0,98,0.00,,OVC028,0.00,VWS V14.00,2013-02-16 12:13:00,
2013-02-16 04:15:00,42.4,41.9,30.24,East,90,0.0,0.0,98,0.00,,OVC028,0.00,VWS V14.00,2013-02-16 12:15:00,
2013-02-16 04:18:00,42.4,41.9,30.24,East,90,0.0,0.0,98,0.00,,OVC028,0.00,VWS V14.00,2013-02-16 12:18:00,
2013-02-16 04:20:00,42.4,41.9,30.24,ENE,68,0.0,0.0,98,0.00,,OVC028,0.00,VWS V14.00,2013-02-16 12:20:00,
2013-02-16 04:23:00,42.4,41.9,30.24,ESE,112,0.0,0.0,98,0.00,,OVC028,0.00,VWS V14.00,2013-02-16 12:23:00,
2013-02-16 04:25:00,42.4,41.9,30.24,ESE,112,0.0,0.0,98,0.00,,OVC028,0.00,VWS V14.00,2013-02-16 12:25:00,
2013-02-16 04:28:00,42.4,41.9,30.24,ESE,112,0.0,0.0,98,0.00,,OVC028,0.00,VWS V14.00,2013-02-16 12:28:00,
2013-02-16 04:30:00,42.4,41.9,30.24,ESE,112,0.0,0.0,98,0.00,,OVC028,0.00,VWS V14.00,2013-02-16 12:30:00,
2013-02-16 04:33:00,42.4,41.9,30.24,ENE,68,0.0,0.0,98,0.00,,OVC017,0.00,VWS V14.00,2013-02-16 12:33:00,
2013-02-16 04:35:00,42.4,41.9,30.24,East,90,0.0,0.0,98,0.00,,OVC017,0.00,VWS V14.00,2013-02-16 12:35:00,
2013-02-16 04:38:00,42.3,41.7,30.24,East,90,0.0,0.0,98,0.00,,OVC017,0.00,VWS V14.00,2013-02-16 12:38:00,
2013-02-16 04:40:00,42.3,41.7,30.24,East,90,0.0,0.0,98,0.00,,OVC017,0.00,VWS V14.00,2013-02-16 12:40:00,
2013-02-16 04:43:00,42.3,41.7,30.24,East,90,0.0,0.0,98,0.00,,OVC017,0.00,VWS V14.00,2013-02-16 12:43:00,
2013-02-16 04:44:00,42.3,41.7,30.24,East,90,0.0,0.0,98,0.00,,OVC017,0.00,VWS V14.00,2013-02-16 12:44:00,
2013-02-16 04:45:00,42.3,41.7,30.24,East,90,0.0,0.0,98,0.00,,OVC017,0.00,VWS V14.00,2013-02-16 12:45:00,
2013-02-16 04:48:00,42.3,41.7,30.24,East,90,0.0,0.0,98,0.00,,OVC014,0.00,VWS V14.00,2013-02-16 12:48:00,
2013-02-16 04:49:00,42.3,41.7,30.24,East,90,0.0,0.0,98,0.00,,OVC014,0.00,VWS V14.00,2013-02-16 12:49:00,
2013-02-16 04:50:00,42.3,41.7,30.24,East,90,0.0,0.0,98,0.00,,OVC014,0.00,VWS V14.00,2013-02-16 12:50:00,
2013-02-16 04:53:00,42.3,41.7,30.24,East,90,0.0,0.0,98,0.00,,OVC014,0.00,VWS V14.00,2013-02-16 12:53:00,
2013-02-16 04:54:00,42.4,41.9,30.24,East,90,1.6,1.6,98,0.00,,OVC014,0.00,VWS V14.00,2013-02-16 12:54:00,
2013-02-16 04:55:00,42.4,41.9,30.24,East,90,0.0,1.6,98,0.00,,OVC014,0.00,VWS V14.00,2013-02-16 12:55:00,
2013-02-16 04:58:00,42.4,41.9,30.24,East,90,0.0,1.6,98,0.00,,OVC014,0.00,VWS V14.00,2013-02-16 12:58:00,
2013-02-16 04:59:00,42.4,41.9,30.24,East,90,0.0,1.6,98,0.00,,OVC014,0.00,VWS V14.00,2013-02-16 12:59:00,
2013-02-16 05:00:00,42.4,41.9,30.24,East,90,0.0,1.6,98,0.00,,OVC014,0.00,VWS V14.00,2013-02-16 13:00:00,
2013-02-16 05:03:00,42.4,41.9,30.24,East,90,0.0,1.6,98,0.00,,OVC014,0.00,VWS V14.00,2013-02-16 13:03:00,
2013-02-16 05:04:00,42.4,41.9,30.24,East,90,0.0,1.6,98,0.00,,OVC014,0.00,VWS V14.00,2013-02-16 13:04:00,
2013-02-16 05:05:00,42.4,41.9,30.24,East,90,0.0,1.6,98,0.00,,OVC014,0.00,VWS V14.00,2013-02-16 13:05:00,
2013-02-16 05:08:00,42.4,41.9,30.24,East,90,0.0,1.6,98,0.00,,OVC014,0.00,VWS V14.00,2013-02-16 13:08:00,
2013-02-16 05:09:00,42.4,41.9,30.24,East,90,0.0,1.6,98,0.00,,OVC014,0.00,VWS V14.00,2013-02-16 13:09:00,
2013-02-16 05:11:00,42.4,41.9,30.24,East,90,0.0,1.6,98,0.00,,OVC014,0.00,VWS V14.00,2013-02-16 13:11:00,
2013-02-16 05:13:00,42.4,41.9,30.24,East,90,0.0,0.9,98,0.00,,OVC014,0.00,VWS V14.00,2013-02-16 13:13:00,
2013-02-16 05:14:00,42.4,41.9,30.24,East,90,0.0,0.9,98,0.00,,OVC014,0.00,VWS V14.00,2013-02-16 13:14:00,
2013-02-16 05:16:00,42.4,41.9,30.24,East,90,0.0,0.9,98,0.00,,OVC014,0.00,VWS V14.00,2013-02-16 13:16:00,
2013-02-16 05:18:00,42.4,41.9,30.24,East,90,0.0,0.0,98,0.00,,OVC014,0.00,VWS V14.00,2013-02-16 13:18:00,
2013-02-16 05:19:00,42.4,41.9,30.24,East,90,0.0,0.0,98,0.00,,OVC014,0.00,VWS V14.00,2013-02-16 13:19:00,
2013-02-16 05:21:00,42.4,41.9,30.24,East,90,0.0,0.0,98,0.00,,OVC014,0.00,VWS V14.00,2013-02-16 13:21:00,
2013-02-16 05:23:00,42.6,42.1,30.24,East,90,1.3,1.3,98,0.00,,OVC014,0.00,VWS V14.00,2013-02-16 13:23:00,
2013-02-16 05:24:00,42.6,42.1,30.24,East,90,1.3,1.3,98,0.00,,OVC014,0.00,VWS V14.00,2013-02-16 13:24:00,
2013-02-16 05:26:00,42.6,42.1,30.24,East,90,0.0,1.3,98,0.00,,OVC014,0.00,VWS V14.00,2013-02-16 13:26:00,
2013-02-16 05:28:00,42.8,42.0,30.24,East,90,0.0,1.3,97,0.00,,OVC014,0.00,VWS V14.00,2013-02-16 13:28:00,
2013-02-16 05:29:00,42.8,42.0,30.24,East,90,0.0,1.3,97,0.00,,OVC014,0.00,VWS V14.00,2013-02-16 13:29:00,
2013-02-16 05:31:00,42.8,42.0,30.24,East,90,0.0,1.3,97,0.00,,OVC014,0.00,VWS V14.00,2013-02-16 13:31:00,
2013-02-16 05:33:00,42.8,42.0,30.24,East,90,0.0,1.3,97,0.00,,OVC008,0.00,VWS V14.00,2013-02-16 13:33:00,
2013-02-16 05:34:00,42.8,42.3,30.24,East,90,0.0,1.3,98,0.00,,OVC008,0.00,VWS V14.00,2013-02-16 13:34:00,
2013-02-16 05:36:00,42.8,42.0,30.24,East,90,0.0,1.3,97,0.00,,OVC008,0.00,VWS V14.00,2013-02-16 13:36:00,
2013-02-16 05:38:00,42.8,42.0,30.24,East,90,1.3,1.3,97,0.00,,OVC008,0.00,VWS V14.00,2013-02-16 13:38:00,
2013-02-16 05:39:00,42.8,42.0,30.24,East,90,1.3,1.3,97,0.00,,OVC008,0.00,VWS V14.00,2013-02-16 13:39:00,
2013-02-16 05:41:00,42.8,42.0,30.24,East,90,1.3,2.2,97,0.00,,OVC008,0.00,VWS V14.00,2013-02-16 13:41:00,
2013-02-16 05:43:00,42.8,42.0,30.24,East,90,2.0,2.2,97,0.00,,OVC008,0.00,VWS V14.00,2013-02-16 13:43:00,
2013-02-16 05:44:00,42.8,42.0,30.24,East,90,0.0,2.2,97,0.00,,OVC008,0.00,VWS V14.00,2013-02-16 13:44:00,
2013-02-16 05:46:00,42.8,42.0,30.24,East,90,0.0,2.2,97,0.00,,OVC008,0.00,VWS V14.00,2013-02-16 13:46:00,
2013-02-16 05:48:00,43.0,42.2,30.24,East,90,0.0,2.2,97,0.00,,OVC008,0.00,VWS V14.00,2013-02-16 13:48:00,
2013-02-16 05:49:00,43.0,42.2,30.24,East,90,0.0,2.2,97,0.00,,OVC008,0.00,VWS V14.00,2013-02-16 13:49:00,
2013-02-16 05:51:00,43.0,42.2,30.24,ESE,112,1.1,2.2,97,0.00,,OVC008,0.00,VWS V14.00,2013-02-16 13:51:00,
2013-02-16 05:53:00,43.0,42.2,30.24,ESE,112,0.0,2.2,97,0.00,,OVC008,0.00,VWS V14.00,2013-02-16 13:53:00,
2013-02-16 05:54:00,43.0,42.2,30.24,ESE,112,0.0,2.2,97,0.00,,OVC008,0.00,VWS V14.00,2013-02-16 13:54:00,
2013-02-16 05:56:00,43.0,42.2,30.24,ESE,112,0.0,2.2,97,0.00,,OVC008,0.00,VWS V14.00,2013-02-16 13:56:00,
2013-02-16 05:58:00,43.0,42.2,30.24,ESE,112,0.0,2.2,97,0.00,,OVC008,0.00,VWS V14.00,2013-02-16 13:58:00,
2013-02-16 05:59:00,43.0,42.5,30.24,ESE,112,0.0,2.2,98,0.00,,OVC008,0.00,VWS V14.00,2013-02-16 13:59:00,
2013-02-16 06:01:00,43.0,42.5,30.24,ESE,112,0.0,1.6,98,0.00,,OVC008,0.00,VWS V14.00,2013-02-16 14:01:00,
2013-02-16 06:03:00,43.0,42.5,30.24,ESE,112,0.0,1.6,98,0.00,,OVC008,0.00,VWS V14.00,2013-02-16 14:03:00,
2013-02-16 06:04:00,43.0,42.5,30.24,ESE,112,0.0,1.6,98,0.00,,OVC008,0.00,VWS V14.00,2013-02-16 14:04:00,
2013-02-16 06:05:00,43.0,42.5,30.24,ESE,112,0.0,1.6,98,0.00,,OVC008,0.00,VWS V14.00,2013-02-16 14:05:00,
2013-02-16 06:06:00,43.2,42.6,30.24,ESE,112,0.0,0.0,98,0.00,,OVC008,0.00,VWS V14.00,2013-02-16 14:06:00,
2013-02-16 06:09:00,43.2,42.6,30.24,ESE,112,0.0,0.0,98,0.00,,OVC008,0.00,VWS V14.00,2013-02-16 14:09:00,
2013-02-16 06:10:00,43.2,42.6,30.24,ESE,112,0.0,0.0,98,0.00,,OVC008,0.00,VWS V14.00,2013-02-16 14:10:00,
2013-02-16 06:11:00,43.2,42.6,30.24,ESE,112,0.0,0.0,98,0.00,,OVC008,0.00,VWS V14.00,2013-02-16 14:11:00,
2013-02-16 06:14:00,43.2,42.6,30.24,ESE,112,0.0,0.0,98,0.00,,OVC008,0.00,VWS V14.00,2013-02-16 14:14:00,
2013-02-16 06:15:00,43.2,42.6,30.24,ESE,112,0.0,0.0,98,0.00,,OVC008,0.00,VWS V14.00,2013-02-16 14:15:00,
2013-02-16 06:16:00,43.2,42.6,30.24,ESE,112,0.0,0.0,98,0.00,,OVC008,0.00,VWS V14.00,2013-02-16 14:16:00,
2013-02-16 06:19:00,43.2,42.6,30.24,ESE,112,0.0,0.0,98,0.00,,OVC008,0.00,VWS V14.00,2013-02-16 14:19:00,
2013-02-16 06:20:00,43.2,42.6,30.24,ESE,112,0.0,0.0,98,0.00,,OVC008,0.00,VWS V14.00,2013-02-16 14:20:00,
2013-02-16 06:21:00,43.2,42.6,30.24,ESE,112,0.0,0.0,98,0.00,,OVC008,0.00,VWS V14.00,2013-02-16 14:21:00,
2013-02-16 06:24:00,43.2,42.6,30.24,ESE,112,0.0,0.0,98,0.00,,OVC008,0.00,VWS V14.00,2013-02-16 14:24:00,
2013-02-16 06:25:00,43.2,42.6,30.24,ESE,112,0.0,0.0,98,0.00,,OVC008,0.00,VWS V14.00,2013-02-16 14:25:00,
2013-02-16 06:26:00,43.3,42.8,30.24,ESE,112,0.0,0.0,98,0.00,,OVC008,0.00,VWS V14.00,2013-02-16 14:26:00,
2013-02-16 06:29:00,43.3,42.8,30.24,ESE,112,0.0,0.0,98,0.00,,OVC008,0.00,VWS V14.00,2013-02-16 14:29:00,
2013-02-16 06:30:00,43.3,42.8,30.24,ESE,112,0.0,0.0,98,0.00,,OVC008,0.00,VWS V14.00,2013-02-16 14:30:00,
2013-02-16 06:31:00,43.3,42.8,30.24,ESE,112,0.0,0.0,98,0.00,,OVC008,0.00,VWS V14.00,2013-02-16 14:31:00,
2013-02-16 06:34:00,43.3,42.8,30.24,ESE,112,0.0,0.0,98,0.00,,OVC010,0.00,VWS V14.00,2013-02-16 14:34:00,
2013-02-16 06:35:00,43.3,42.8,30.24,ESE,112,0.0,0.0,98,0.00,,OVC010,0.00,VWS V14.00,2013-02-16 14:35:00,
2013-02-16 06:36:00,43.3,42.8,30.24,ESE,112,0.0,0.0,98,0.00,,OVC010,0.00,VWS V14.00,2013-02-16 14:36:00,
2013-02-16 06:39:00,43.3,42.8,30.24,ESE,112,0.0,0.0,98,0.00,,OVC010,0.00,VWS V14.00,2013-02-16 14:39:00,
2013-02-16 06:40:00,43.3,42.8,30.24,ESE,112,0.0,0.0,98,0.00,,OVC010,0.00,VWS V14.00,2013-02-16 14:40:00,
2013-02-16 06:41:00,43.3,42.8,30.24,ESE,112,0.0,0.0,98,0.00,,OVC010,0.00,VWS V14.00,2013-02-16 14:41:00,
2013-02-16 06:44:00,43.3,42.8,30.24,ESE,112,0.0,0.0,98,0.00,,OVC010,0.00,VWS V14.00,2013-02-16 14:44:00,
2013-02-16 06:45:00,43.3,42.8,30.24,ESE,112,0.0,0.0,98,0.00,,OVC010,0.00,VWS V14.00,2013-02-16 14:45:00,
2013-02-16 06:46:00,43.3,42.8,30.24,ESE,112,0.0,0.0,98,0.00,,OVC010,0.00,VWS V14.00,2013-02-16 14:46:00,
2013-02-16 06:49:00,43.3,42.8,30.24,ESE,112,0.0,0.0,98,0.00,,OVC010,0.00,VWS V14.00,2013-02-16 14:49:00,
2013-02-16 06:50:00,43.3,42.8,30.24,ESE,112,0.0,0.0,98,0.00,,OVC010,0.00,VWS V14.00,2013-02-16 14:50:00,
2013-02-16 06:51:00,43.3,42.8,30.24,ESE,112,0.0,0.0,98,0.00,,OVC010,0.00,VWS V14.00,2013-02-16 14:51:00,
2013-02-16 06:54:00,43.3,42.8,30.24,ESE,112,0.0,0.0,98,0.00,,OVC010,0.00,VWS V14.00,2013-02-16 14:54:00,
2013-02-16 06:55:00,43.3,42.8,30.24,ESE,112,0.0,0.0,98,0.00,,OVC010,0.00,VWS V14.00,2013-02-16 14:55:00,
2013-02-16 06:56:00,43.2,42.6,30.24,ESE,112,0.0,0.0,98,0.00,,OVC010,0.00,VWS V14.00,2013-02-16 14:56:00,
2013-02-16 06:59:00,43.3,42.8,30.24,ESE,112,0.0,0.0,98,0.00,,OVC010,0.00,VWS V14.00,2013-02-16 14:59:00,
2013-02-16 07:00:00,43.3,42.8,30.24,ESE,112,0.0,0.0,98,0.00,,OVC010,0.00,VWS V14.00,2013-02-16 15:00:00,
2013-02-16 07:01:00,43.3,42.8,30.24,ESE,112,0.0,0.0,98,0.00,,OVC010,0.00,VWS V14.00,2013-02-16 15:01:00,
2013-02-16 07:04:00,43.3,42.8,30.24,ESE,112,0.0,0.0,98,0.00,,OVC010,0.00,VWS V14.00,2013-02-16 15:04:00,
2013-02-16 07:05:00,43.3,42.8,30.24,ESE,112,0.0,0.0,98,0.00,,OVC010,0.00,VWS V14.00,2013-02-16 15:05:00,
2013-02-16 07:06:00,43.3,42.8,30.24,ESE,112,0.0,0.0,98,0.00,,OVC010,0.00,VWS V14.00,2013-02-16 15:06:00,
2013-02-16 07:09:00,43.2,42.6,30.24,ESE,112,0.0,0.0,98,0.00,,OVC010,0.00,VWS V14.00,2013-02-16 15:09:00,
2013-02-16 07:10:00,43.2,42.6,30.24,ESE,112,0.0,0.0,98,0.00,,OVC010,0.00,VWS V14.00,2013-02-16 15:10:00,
2013-02-16 07:11:00,43.2,42.6,30.24,ESE,112,0.0,0.0,98,0.00,,OVC010,0.00,VWS V14.00,2013-02-16 15:11:00,
2013-02-16 07:14:00,43.2,42.6,30.24,ESE,112,0.0,0.0,98,0.00,,OVC010,0.00,VWS V14.00,2013-02-16 15:14:00,
2013-02-16 07:15:00,43.0,42.5,30.24,ESE,112,0.0,0.0,98,0.00,,OVC010,0.00,VWS V14.00,2013-02-16 15:15:00,
2013-02-16 07:16:00,43.0,42.5,30.24,ESE,112,0.0,0.0,98,0.00,,OVC010,0.00,VWS V14.00,2013-02-16 15:16:00,
2013-02-16 07:19:00,43.0,42.5,30.24,ESE,112,0.0,0.0,98,0.00,,OVC010,0.00,VWS V14.00,2013-02-16 15:19:00,
2013-02-16 07:20:00,43.0,42.5,30.24,ESE,112,0.0,0.0,98,0.00,,OVC010,0.00,VWS V14.00,2013-02-16 15:20:00,
2013-02-16 07:21:00,43.0,42.5,30.24,ESE,112,0.0,0.0,98,0.00,,OVC010,0.00,VWS V14.00,2013-02-16 15:21:00,
2013-02-16 07:24:00,43.2,42.6,30.24,ESE,112,0.0,0.0,98,0.00,,OVC010,0.00,VWS V14.00,2013-02-16 15:24:00,
2013-02-16 07:25:00,43.2,42.6,30.24,ESE,112,0.0,0.0,98,0.00,,OVC010,0.00,VWS V14.00,2013-02-16 15:25:00,
2013-02-16 07:27:00,43.2,42.6,30.24,ESE,112,0.0,0.0,98,0.00,,OVC010,0.00,VWS V14.00,2013-02-16 15:27:00,
2013-02-16 07:29:00,43.3,42.8,30.24,ESE,112,0.0,0.0,98,0.00,,OVC010,0.00,VWS V14.00,2013-02-16 15:29:00,
2013-02-16 07:30:00,43.3,42.8,30.24,East,90,0.0,0.0,98,0.00,,OVC010,0.00,VWS V14.00,2013-02-16 15:30:00,
2013-02-16 07:32:00,43.5,43.0,30.24,East,90,0.0,0.0,98,0.00,,OVC010,0.00,VWS V14.00,2013-02-16 15:32:00,
2013-02-16 07:34:00,43.7,43.2,30.24,East,90,0.0,0.0,98,0.00,,OVC010,0.00,VWS V14.00,2013-02-16 15:34:00,
2013-02-16 07:35:00,43.7,43.2,30.24,East,90,0.0,0.0,98,0.00,,OVC010,0.00,VWS V14.00,2013-02-16 15:35:00,
2013-02-16 07:37:00,43.7,43.2,30.24,East,90,0.0,0.0,98,0.00,,OVC010,0.00,VWS V14.00,2013-02-16 15:37:00,
2013-02-16 07:39:00,43.9,43.3,30.24,East,90,0.0,0.0,98,0.00,,OVC010,0.00,VWS V14.00,2013-02-16 15:39:00,
2013-02-16 07:40:00,43.9,43.3,30.24,East,90,0.0,0.0,98,0.00,,OVC010,0.00,VWS V14.00,2013-02-16 15:40:00,
2013-02-16 07:42:00,43.9,43.3,30.24,East,90,0.0,0.0,98,0.00,,OVC010,0.00,VWS V14.00,2013-02-16 15:42:00,
2013-02-16 07:44:00,43.9,43.3,30.24,East,90,0.0,0.0,98,0.00,,OVC010,0.00,VWS V14.00,2013-02-16 15:44:00,
2013-02-16 07:45:00,43.9,43.3,30.24,East,90,0.0,0.0,98,0.00,,OVC010,0.00,VWS V14.00,2013-02-16 15:45:00,
2013-02-16 07:47:00,43.9,43.3,30.24,East,90,0.0,0.0,98,0.00,,OVC010,0.00,VWS V14.00,2013-02-16 15:47:00,
2013-02-16 07:49:00,43.9,43.3,30.24,East,90,0.0,0.0,98,0.00,,OVC010,0.00,VWS V14.00,2013-02-16 15:49:00,
2013-02-16 07:50:00,43.9,43.3,30.24,East,90,0.0,0.0,98,0.00,,OVC010,0.00,VWS V14.00,2013-02-16 15:50:00,
2013-02-16 07:52:00,43.9,43.3,30.24,East,90,0.0,0.0,98,0.00,,OVC010,0.00,VWS V14.00,2013-02-16 15:52:00,
2013-02-16 07:55:00,43.7,43.2,30.24,East,90,0.0,0.0,98,0.00,,OVC010,0.00,VWS V14.00,2013-02-16 15:55:00,
2013-02-16 07:57:00,43.9,43.3,30.24,East,90,0.0,0.0,98,0.00,,OVC010,0.00,VWS V14.00,2013-02-16 15:57:00,
2013-02-16 08:00:00,44.1,43.5,30.24,East,90,0.0,0.0,98,0.00,,OVC010,0.00,VWS V14.00,2013-02-16 16:00:00,
2013-02-16 08:02:00,44.1,43.5,30.24,East,90,0.0,0.0,98,0.00,,OVC010,0.00,VWS V14.00,2013-02-16 16:02:00,
2013-02-16 08:04:00,44.1,43.5,30.24,East,90,0.0,0.0,98,0.00,,OVC010,0.00,VWS V14.00,2013-02-16 16:04:00,
2013-02-16 08:05:00,44.1,43.5,30.24,East,90,0.0,0.0,98,0.00,,OVC010,0.00,VWS V14.00,2013-02-16 16:05:00,
2013-02-16 08:07:00,44.1,43.5,30.24,ENE,68,0.0,0.0,98,0.00,,OVC010,0.00,VWS V14.00,2013-02-16 16:07:00,
2013-02-16 08:09:00,44.1,43.5,30.24,ENE,68,0.0,0.0,98,0.00,,OVC010,0.00,VWS V14.00,2013-02-16 16:09:00,
2013-02-16 08:10:00,44.1,43.5,30.24,ENE,68,0.0,0.0,98,0.00,,OVC010,0.00,VWS V14.00,2013-02-16 16:10:00,
2013-02-16 08:12:00,43.9,43.3,30.24,ENE,68,0.0,0.0,98,0.00,,OVC010,0.00,VWS V14.00,2013-02-16 16:12:00,
2013-02-16 08:15:00,43.9,43.3,30.24,ENE,68,0.0,0.0,98,0.00,,OVC010,0.00,VWS V14.00,2013-02-16 16:15:00,
2013-02-16 08:17:00,43.9,43.3,30.24,ENE,68,0.0,0.0,98,0.00,,OVC010,0.00,VWS V14.00,2013-02-16 16:17:00,
2013-02-16 08:20:00,43.9,43.3,30.24,ENE,68,0.0,0.0,98,0.00,,OVC010,0.00,VWS V14.00,2013-02-16 16:20:00,
2013-02-16 08:21:00,43.9,43.3,30.24,ENE,68,0.0,0.0,98,0.00,,OVC010,0.00,VWS V14.00,2013-02-16 16:21:00,
2013-02-16 08:22:00,43.9,43.3,30.24,ENE,68,0.0,0.0,98,0.00,,OVC010,0.00,VWS V14.00,2013-02-16 16:22:00,
2013-02-16 08:25:00,43.9,43.3,30.24,East,90,0.0,0.0,98,0.00,,OVC010,0.00,VWS V14.00,2013-02-16 16:25:00,
2013-02-16 08:26:00,43.9,43.3,30.24,East,90,0.0,0.0,98,0.00,,OVC010,0.00,VWS V14.00,2013-02-16 16:26:00,
2013-02-16 08:27:00,43.9,43.3,30.24,ENE,68,0.0,0.0,98,0.00,,OVC010,0.00,VWS V14.00,2013-02-16 16:27:00,
2013-02-16 08:30:00,44.1,43.5,30.24,East,90,0.0,0.0,98,0.00,,OVC010,0.00,VWS V14.00,2013-02-16 16:30:00,
2013-02-16 08:31:00,44.1,43.5,30.24,East,90,0.0,0.0,98,0.00,,OVC010,0.00,VWS V14.00,2013-02-16 16:31:00,
2013-02-16 08:33:00,44.1,43.5,30.24,East,90,0.0,0.0,98,0.00,,OVC010,0.00,VWS V14.00,2013-02-16 16:33:00,
2013-02-16 08:35:00,44.1,43.5,30.24,ESE,112,0.0,0.0,98,0.00,,OVC010,0.00,VWS V14.00,2013-02-16 16:35:00,
2013-02-16 08:36:00,44.1,43.5,30.24,ESE,112,0.0,0.0,98,0.00,,OVC010,0.00,VWS V14.00,2013-02-16 16:36:00,
2013-02-16 08:38:00,44.1,43.5,30.24,East,90,0.0,0.0,98,0.00,,OVC010,0.00,VWS V14.00,2013-02-16 16:38:00,
2013-02-16 08:40:00,44.1,43.5,30.24,East,90,0.0,0.0,98,0.00,,OVC010,0.00,VWS V14.00,2013-02-16 16:40:00,
2013-02-16 08:41:00,44.1,43.5,30.24,East,90,0.0,0.0,98,0.00,,OVC010,0.00,VWS V14.00,2013-02-16 16:41:00,
2013-02-16 08:43:00,44.1,43.5,30.24,East,90,1.6,1.6,98,0.00,,OVC010,0.00,VWS V14.00,2013-02-16 16:43:00,
2013-02-16 08:45:00,44.1,43.5,30.24,East,90,2.0,2.0,98,0.00,,OVC010,0.00,VWS V14.00,2013-02-16 16:45:00,
2013-02-16 08:46:00,44.1,43.5,30.24,East,90,0.0,2.0,98,0.00,,OVC010,0.00,VWS V14.00,2013-02-16 16:46:00,
2013-02-16 08:48:00,44.1,43.5,30.24,East,90,0.0,2.0,98,0.00,,OVC023,0.00,VWS V14.00,2013-02-16 16:48:00,
2013-02-16 08:50:00,44.2,43.7,30.24,NNE,22,0.0,2.0,98,0.00,,OVC023,0.00,VWS V14.00,2013-02-16 16:50:00,
2013-02-16 08:51:00,44.2,43.7,30.24,NNE,22,0.0,2.0,98,0.00,,OVC023,0.00,VWS V14.00,2013-02-16 16:51:00,
2013-02-16 08:53:00,44.1,43.5,30.24,NNW,338,0.0,2.0,98,0.00,,OVC023,0.00,VWS V14.00,2013-02-16 16:53:00,
2013-02-16 08:55:00,44.2,43.7,30.24,NE,45,0.0,2.0,98,0.00,,OVC023,0.00,VWS V14.00,2013-02-16 16:55:00,
2013-02-16 08:56:00,44.2,43.7,30.24,East,90,0.0,2.0,98,0.00,,OVC023,0.00,VWS V14.00,2013-02-16 16:56:00,
2013-02-16 08:58:00,44.2,43.7,30.24,East,90,2.7,2.7,98,0.00,,OVC023,0.00,VWS V14.00,2013-02-16 16:58:00,
2013-02-16 09:00:00,44.2,43.7,30.24,East,90,3.1,3.1,98,0.00,,OVC023,0.00,VWS V14.00,2013-02-16 17:00:00,
2013-02-16 09:01:00,44.4,43.9,30.24,East,90,2.5,3.1,98,0.00,,OVC023,0.00,VWS V14.00,2013-02-16 17:01:00,
2013-02-16 09:03:00,44.6,44.1,30.24,East,90,2.0,3.1,98,0.00,,OVC023,0.00,VWS V14.00,2013-02-16 17:03:00,
2013-02-16 09:05:00,44.8,44.2,30.24,ENE,68,0.0,3.1,98,0.00,,OVC023,0.00,VWS V14.00,2013-02-16 17:05:00,
2013-02-16 09:06:00,44.8,44.2,30.24,NNW,338,0.0,3.1,98,0.00,,OVC023,0.00,VWS V14.00,2013-02-16 17:06:00,
2013-02-16 09:08:00,45.1,44.6,30.24,NNW,338,0.0,3.1,98,0.00,,OVC023,0.00,VWS V14.00,2013-02-16 17:08:00,
2013-02-16 09:10:00,45.1,44.6,30.24,ENE,68,0.0,3.1,98,0.00,,OVC023,0.00,VWS V14.00,2013-02-16 17:10:00,
2013-02-16 09:11:00,45.1,44.6,30.24,ENE,68,0.0,3.1,98,0.00,,OVC023,0.00,VWS V14.00,2013-02-16 17:11:00,
2013-02-16 09:13:00,45.1,44.6,30.24,East,90,0.0,3.1,98,0.00,,OVC023,0.00,VWS V14.00,2013-02-16 17:13:00,
2013-02-16 09:15:00,45.0,44.4,30.24,ENE,68,0.9,3.1,98,0.00,,OVC023,0.00,VWS V14.00,2013-02-16 17:15:00,
2013-02-16 09:16:00,45.0,44.4,30.24,ENE,68,0.9,3.1,98,0.00,,OVC023,0.00,VWS V14.00,2013-02-16 17:16:00,
2013-02-16 09:18:00,45.0,44.4,30.24,ENE,68,0.0,2.0,98,0.00,,OVC023,0.00,VWS V14.00,2013-02-16 17:18:00,
2013-02-16 09:20:00,44.8,44.2,30.24,East,90,2.2,2.2,98,0.00,,OVC023,0.00,VWS V14.00,2013-02-16 17:20:00,
2013-02-16 09:21:00,44.8,44.2,30.24,East,90,2.2,2.2,98,0.00,,OVC023,0.00,VWS V14.00,2013-02-16 17:21:00,
2013-02-16 09:22:00,44.8,44.2,30.24,East,90,0.0,2.2,98,0.00,,OVC023,0.00,VWS V14.00,2013-02-16 17:22:00,
2013-02-16 09:23:00,44.6,44.1,30.24,NE,45,0.0,2.2,98,0.00,,OVC023,0.00,VWS V14.00,2013-02-16 17:23:00,
2013-02-16 09:25:00,44.6,44.1,30.24,NNE,22,0.0,2.2,98,0.00,,OVC023,0.00,VWS V14.00,2013-02-16 17:25:00,
2013-02-16 09:26:00,44.6,44.1,30.24,NNE,22,0.0,2.2,98,0.00,,OVC023,0.00,VWS V14.00,2013-02-16 17:26:00,
2013-02-16 09:27:00,44.6,44.1,30.24,NNE,22,0.0,2.2,98,0.00,,OVC023,0.00,VWS V14.00,2013-02-16 17:27:00,
2013-02-16 09:28:00,44.6,44.1,30.27,NNE,22,0.0,2.2,98,0.00,,OVC023,0.00,VWS V14.00,2013-02-16 17:28:00,
2013-02-16 09:30:00,44.6,44.1,30.27,ENE,68,0.0,2.2,98,0.00,,OVC023,0.00,VWS V14.00,2013-02-16 17:30:00,
2013-02-16 09:31:00,44.6,44.1,30.27,ENE,68,0.0,2.2,98,0.00,,OVC023,0.00,VWS V14.00,2013-02-16 17:31:00,
2013-02-16 09:32:00,44.6,44.1,30.27,East,90,1.3,2.2,98,0.00,,BKN013,0.00,VWS V14.00,2013-02-16 17:32:00,
2013-02-16 09:33:00,44.6,44.1,30.27,East,90,0.0,2.2,98,0.00,,BKN013,0.00,VWS V14.00,2013-02-16 17:33:00,
2013-02-16 09:35:00,44.8,44.2,30.27,East,90,0.0,2.2,98,0.00,,BKN013,0.00,VWS V14.00,2013-02-16 17:35:00,
2013-02-16 09:36:00,44.8,44.2,30.27,East,90,0.0,2.2,98,0.00,,BKN013,0.00,VWS V14.00,2013-02-16 17:36:00,
2013-02-16 09:37:00,44.8,44.2,30.27,East,90,0.0,2.2,98,0.00,,BKN013,0.00,VWS V14.00,2013-02-16 17:37:00,
2013-02-16 09:38:00,44.8,44.2,30.27,East,90,0.0,1.3,98,0.00,,BKN013,0.00,VWS V14.00,2013-02-16 17:38:00,
2013-02-16 09:40:00,45.0,44.4,30.27,East,90,0.0,1.3,98,0.00,,BKN013,0.00,VWS V14.00,2013-02-16 17:40:00,
2013-02-16 09:41:00,45.0,44.4,30.27,East,90,0.0,1.3,98,0.00,,BKN013,0.00,VWS V14.00,2013-02-16 17:41:00,
2013-02-16 09:42:00,45.0,44.4,30.27,East,90,0.0,1.3,98,0.00,,BKN013,0.00,VWS V14.00,2013-02-16 17:42:00,
2013-02-16 09:43:00,45.1,44.6,30.27,East,90,0.0,1.3,98,0.00,,BKN013,0.00,VWS V14.00,2013-02-16 17:43:00,
2013-02-16 09:45:00,45.1,44.6,30.27,East,90,0.0,1.3,98,0.00,,BKN013,0.00,VWS V14.00,2013-02-16 17:45:00,
2013-02-16 09:46:00,45.1,44.6,30.27,East,90,0.0,1.3,98,0.00,,BKN013,0.00,VWS V14.00,2013-02-16 17:46:00,
2013-02-16 09:47:00,45.1,44.6,30.27,ESE,112,1.1,1.3,98,0.00,,OVC012,0.00,VWS V14.00,2013-02-16 17:47:00,
2013-02-16 09:48:00,45.1,44.6,30.27,East,90,1.6,1.6,98,0.00,,OVC033,0.00,VWS V14.00,2013-02-16 17:48:00,
2013-02-16 09:50:00,45.3,44.8,30.27,East,90,1.1,1.6,98,0.00,,OVC033,0.00,VWS V14.00,2013-02-16 17:50:00,
2013-02-16 09:51:00,45.3,44.8,30.27,East,90,1.1,1.6,98,0.00,,OVC033,0.00,VWS V14.00,2013-02-16 17:51:00,
2013-02-16 09:52:00,45.3,44.8,30.27,East,90,0.0,1.6,98,0.00,,OVC033,0.00,VWS V14.00,2013-02-16 17:52:00,
2013-02-16 09:53:00,45.3,44.8,30.27,East,90,0.0,1.6,98,0.00,,OVC033,0.00,VWS V14.00,2013-02-16 17:53:00,
2013-02-16 09:55:00,45.5,45.0,30.27,ENE,68,0.0,1.6,98,0.00,,OVC033,0.00,VWS V14.00,2013-02-16 17:55:00,
2013-02-16 09:56:00,45.5,45.0,30.27,ENE,68,0.0,1.6,98,0.00,,OVC033,0.00,VWS V14.00,2013-02-16 17:56:00,
2013-02-16 09:57:00,45.7,45.2,30.27,ENE,68,0.0,1.6,98,0.00,,OVC033,0.00,VWS V14.00,2013-02-16 17:57:00,
2013-02-16 09:58:00,45.7,45.2,30.24,ENE,68,0.0,1.6,98,0.00,,OVC033,0.00,VWS V14.00,2013-02-16 17:58:00,
2013-02-16 10:00:00,45.7,45.2,30.24,East,90,0.0,2.2,98,0.00,,OVC033,0.00,VWS V14.00,2013-02-16 18:00:00,
2013-02-16 10:01:00,45.7,45.2,30.24,East,90,0.0,2.2,98,0.00,,OVC033,0.00,VWS V14.00,2013-02-16 18:01:00,
2013-02-16 10:02:00,45.7,45.2,30.24,East,90,0.0,2.2,98,0.00,,OVC033,0.00,VWS V14.00,2013-02-16 18:02:00,
2013-02-16 10:03:00,45.7,45.2,30.24,East,90,0.0,2.2,98,0.00,,OVC033,0.00,VWS V14.00,2013-02-16 18:03:00,
2013-02-16 10:05:00,45.7,45.2,30.24,East,90,2.7,2.7,98,0.00,,OVC033,0.00,VWS V14.00,2013-02-16 18:05:00,
2013-02-16 10:06:00,45.7,45.2,30.24,ESE,112,1.6,2.7,98,0.00,,OVC033,0.00,VWS V14.00,2013-02-16 18:06:00,
2013-02-16 10:07:00,45.7,45.2,30.24,East,90,0.0,2.7,98,0.00,,OVC033,0.00,VWS V14.00,2013-02-16 18:07:00,
2013-02-16 10:09:00,45.7,45.2,30.24,East,90,2.5,2.7,98,0.00,,OVC033,0.00,VWS V14.00,2013-02-16 18:09:00,
2013-02-16 10:10:00,45.5,45.0,30.24,East,90,4.0,4.0,98,0.00,,OVC033,0.00,VWS V14.00,2013-02-16 18:10:00,
2013-02-16 10:11:00,45.5,45.0,30.24,East,90,4.0,4.0,98,0.00,,OVC033,0.00,VWS V14.00,2013-02-16 18:11:00,
2013-02-16 10:12:00,45.5,44.7,30.24,East,90,2.9,4.0,97,0.00,,OVC033,0.00,VWS V14.00,2013-02-16 18:12:00,
2013-02-16 10:14:00,45.5,44.7,30.24,East,90,4.3,4.3,97,0.00,,OVC033,0.00,VWS V14.00,2013-02-16 18:14:00,
2013-02-16 10:16:00,45.5,44.7,30.24,SSW,202,3.6,4.3,97,0.00,,OVC033,0.00,VWS V14.00,2013-02-16 18:16:00,
2013-02-16 10:17:00,45.5,44.7,30.24,East,90,3.4,4.3,97,0.00,,OVC033,0.00,VWS V14.00,2013-02-16 18:17:00,
2013-02-16 10:19:00,45.7,44.9,30.24,ENE,68,3.1,4.3,97,0.00,,OVC033,0.00,VWS V14.00,2013-02-16 18:19:00,
2013-02-16 10:21:00,45.9,45.1,30.24,East,90,3.4,4.3,97,0.00,,OVC033,0.00,VWS V14.00,2013-02-16 18:21:00,
2013-02-16 10:22:00,45.9,45.1,30.24,East,90,2.5,4.3,97,0.00,,OVC033,0.00,VWS V14.00,2013-02-16 18:22:00,
2013-02-16 10:24:00,46.0,45.2,30.24,East,90,2.0,4.3,97,0.00,,OVC033,0.00,VWS V14.00,2013-02-16 18:24:00,
2013-02-16 10:26:00,46.0,45.2,30.24,East,90,2.5,4.3,97,0.00,,OVC033,0.00,VWS V14.00,2013-02-16 18:26:00,
2013-02-16 10:27:00,46.2,45.4,30.24,ESE,112,2.0,4.3,97,0.00,,OVC033,0.00,VWS V14.00,2013-02-16 18:27:00,
2013-02-16 10:29:00,46.2,45.4,30.24,East,90,3.6,4.3,97,0.00,,OVC033,0.00,VWS V14.00,2013-02-16 18:29:00,
2013-02-16 10:31:00,46.2,45.2,30.24,East,90,2.9,3.6,96,0.00,,OVC033,0.00,VWS V14.00,2013-02-16 18:31:00,
2013-02-16 10:32:00,46.4,45.3,30.24,East,90,1.1,3.6,96,0.00,,OVC037,0.00,VWS V14.00,2013-02-16 18:32:00,
2013-02-16 10:34:00,46.4,45.3,30.24,East,90,1.6,3.6,96,0.00,,OVC037,0.00,VWS V14.00,2013-02-16 18:34:00,
2013-02-16 10:36:00,46.4,45.3,30.24,East,90,1.6,3.6,96,0.00,,OVC037,0.00,VWS V14.00,2013-02-16 18:36:00,
2013-02-16 10:37:00,46.4,45.3,30.24,ENE,68,0.9,3.6,96,0.00,,OVC037,0.00,VWS V14.00,2013-02-16 18:37:00,
2013-02-16 10:39:00,46.6,45.5,30.24,NNW,338,0.9,3.6,96,0.00,,OVC037,0.00,VWS V14.00,2013-02-16 18:39:00,
2013-02-16 10:41:00,46.6,45.5,30.24,ESE,112,0.0,3.6,96,0.00,,OVC037,0.00,VWS V14.00,2013-02-16 18:41:00,
2013-02-16 10:43:00,46.6,45.5,30.24,NE,45,0.0,2.7,96,0.00,,OVC037,0.00,VWS V14.00,2013-02-16 18:43:00,
2013-02-16 10:44:00,46.6,45.5,30.24,NE,45,0.0,2.7,96,0.00,,OVC037,0.00,VWS V14.00,2013-02-16 18:44:00,
2013-02-16 10:46:00,46.6,45.5,30.24,East,90,0.0,1.6,96,0.00,,OVC037,0.00,VWS V14.00,2013-02-16 18:46:00,
2013-02-16 10:48:00,46.6,45.5,30.24,East,90,0.0,1.1,96,0.00,,OVC035,0.00,VWS V14.00,2013-02-16 18:48:00,
2013-02-16 10:49:00,46.6,45.5,30.24,East,90,1.1,1.1,96,0.00,,OVC042,0.00,VWS V14.00,2013-02-16 18:49:00,
2013-02-16 10:51:00,46.4,45.0,30.24,East,90,0.0,1.3,95,0.00,,OVC042,0.00,VWS V14.00,2013-02-16 18:51:00,
2013-02-16 10:53:00,46.4,45.0,30.24,ENE,68,0.0,1.3,95,0.00,,OVC042,0.00,VWS V14.00,2013-02-16 18:53:00,
2013-02-16 10:54:00,46.4,45.0,30.24,ENE,68,0.0,1.3,95,0.00,,OVC042,0.00,VWS V14.00,2013-02-16 18:54:00,
2013-02-16 10:56:00,46.4,45.0,30.24,NNE,22,0.0,1.3,95,0.00,,OVC035,0.00,VWS V14.00,2013-02-16 18:56:00,
2013-02-16 10:58:00,46.6,45.2,30.24,East,90,3.4,3.4,95,0.00,,OVC042,0.00,VWS V14.00,2013-02-16 18:58:00,
2013-02-16 10:59:00,46.6,45.2,30.24,ENE,68,0.0,3.4,95,0.00,,OVC042,0.00,VWS V14.00,2013-02-16 18:59:00,
2013-02-16 11:01:00,46.6,45.2,30.24,East,90,2.5,3.4,95,0.00,,OVC042,0.00,VWS V14.00,2013-02-16 19:01:00,
2013-02-16 11:03:00,46.6,45.2,30.24,East,90,0.0,3.4,95,0.00,,OVC042,0.00,VWS V14.00,2013-02-16 19:03:00,
2013-02-16 11:04:00,46.6,45.2,30.24,NNW,338,0.0,3.4,95,0.00,,OVC042,0.00,VWS V14.00,2013-02-16 19:04:00,
2013-02-16 11:06:00,46.6,45.2,30.24,NW,315,0.0,0.0,95,0.00,,OVC042,0.00,VWS V14.00,2013-02-16 19:06:00,
2013-02-16 11:08:00,46.6,45.2,30.24,NE,45,0.0,0.0,95,0.00,,OVC042,0.00,VWS V14.00,2013-02-16 19:08:00,
2013-02-16 11:09:00,46.6,45.2,30.24,NE,45,0.0,0.0,95,0.00,,OVC042,0.00,VWS V14.00,2013-02-16 19:09:00,
2013-02-16 11:11:00,46.6,45.2,30.24,NE,45,0.0,0.0,95,0.00,,OVC042,0.00,VWS V14.00,2013-02-16 19:11:00,
2013-02-16 11:13:00,46.4,45.0,30.24,ESE,112,0.0,0.9,95,0.00,,OVC042,0.00,VWS V14.00,2013-02-16 19:13:00,
2013-02-16 11:14:00,46.4,45.0,30.24,ESE,112,0.0,0.9,95,0.00,,OVC042,0.00,VWS V14.00,2013-02-16 19:14:00,
2013-02-16 11:16:00,46.4,45.0,30.24,ESE,112,0.0,0.9,95,0.00,,OVC042,0.00,VWS V14.00,2013-02-16 19:16:00,
2013-02-16 11:18:00,46.4,45.0,30.24,East,90,1.3,1.3,95,0.00,,OVC042,0.00,VWS V14.00,2013-02-16 19:18:00,
2013-02-16 11:19:00,46.4,45.0,30.24,East,90,0.0,1.3,95,0.00,,OVC042,0.00,VWS V14.00,2013-02-16 19:19:00,
2013-02-16 11:21:00,46.4,45.0,30.24,East,90,0.0,1.3,95,0.00,,OVC042,0.00,VWS V14.00,2013-02-16 19:21:00,
2013-02-16 11:23:00,46.6,45.2,30.24,East,90,0.0,1.3,95,0.00,,OVC042,0.00,VWS V14.00,2013-02-16 19:23:00,
2013-02-16 11:24:00,46.6,45.2,30.24,East,90,0.0,1.3,95,0.00,,OVC042,0.00,VWS V14.00,2013-02-16 19:24:00,
2013-02-16 11:26:00,46.6,45.2,30.24,ENE,68,0.0,1.3,95,0.00,,OVC042,0.00,VWS V14.00,2013-02-16 19:26:00,
2013-02-16 11:27:00,46.6,45.2,30.24,ENE,68,0.0,1.3,95,0.00,,OVC042,0.00,VWS V14.00,2013-02-16 19:27:00,
2013-02-16 11:28:00,46.8,45.4,30.24,ENE,68,0.0,1.3,95,0.00,,OVC042,0.00,VWS V14.00,2013-02-16 19:28:00,
2013-02-16 11:29:00,46.8,45.1,30.24,ENE,68,0.0,1.3,94,0.00,,OVC042,0.00,VWS V14.00,2013-02-16 19:29:00,
2013-02-16 11:31:00,46.8,45.4,30.24,ENE,68,0.0,1.3,95,0.00,,OVC042,0.00,VWS V14.00,2013-02-16 19:31:00,
2013-02-16 11:32:00,46.8,45.4,30.24,ENE,68,0.0,1.3,95,0.00,,OVC027,0.00,VWS V14.00,2013-02-16 19:32:00,
2013-02-16 11:33:00,46.8,45.4,30.24,NNW,338,0.0,1.3,95,0.00,,OVC027,0.00,VWS V14.00,2013-02-16 19:33:00,
2013-02-16 11:34:00,46.8,45.4,30.24,NNW,338,0.0,0.0,95,0.00,,OVC027,0.00,VWS V14.00,2013-02-16 19:34:00,
2013-02-16 11:36:00,46.8,45.4,30.24,West,270,0.0,0.0,95,0.00,,OVC027,0.00,VWS V14.00,2013-02-16 19:36:00,
2013-02-16 11:37:00,46.8,45.4,30.24,WSW,248,2.5,2.5,95,0.00,,OVC027,0.00,VWS V14.00,2013-02-16 19:37:00,
2013-02-16 11:38:00,46.8,45.4,30.24,NNW,338,0.0,3.6,95,0.00,,OVC027,0.00,VWS V14.00,2013-02-16 19:38:00,
2013-02-16 11:39:00,46.8,45.4,30.24,East,90,4.0,4.0,95,0.00,,OVC027,0.00,VWS V14.00,2013-02-16 19:39:00,
2013-02-16 11:41:00,46.8,45.4,30.24,NW,315,2.0,4.0,95,0.00,,OVC027,0.00,VWS V14.00,2013-02-16 19:41:00,
2013-02-16 11:42:00,46.9,45.6,30.24,WNW,292,0.0,4.0,95,0.00,,OVC027,0.00,VWS V14.00,2013-02-16 19:42:00,
2013-02-16 11:43:00,46.9,45.3,30.24,West,270,1.1,4.0,94,0.00,,OVC027,0.00,VWS V14.00,2013-02-16 19:43:00,
2013-02-16 11:44:00,46.9,45.3,30.24,West,270,1.1,4.0,94,0.00,,OVC027,0.00,VWS V14.00,2013-02-16 19:44:00,
2013-02-16 11:46:00,46.9,45.3,30.24,WNW,292,3.1,4.0,94,0.00,,OVC027,0.00,VWS V14.00,2013-02-16 19:46:00,
2013-02-16 11:47:00,46.9,45.3,30.24,WSW,248,0.0,4.0,94,0.00,,OVC027,0.00,VWS V14.00,2013-02-16 19:47:00,
2013-02-16 11:48:00,46.9,45.3,30.24,West,270,0.0,4.0,94,0.00,,OVC033,0.00,VWS V14.00,2013-02-16 19:48:00,
2013-02-16 11:49:00,46.9,45.3,30.24,West,270,0.0,4.0,94,0.00,,OVC033,0.00,VWS V14.00,2013-02-16 19:49:00,
2013-02-16 11:51:00,46.9,45.3,30.24,WSW,248,2.9,4.0,94,0.00,,OVC033,0.00,VWS V14.00,2013-02-16 19:51:00,
2013-02-16 11:52:00,46.9,45.3,30.24,SSE,158,3.4,4.0,94,0.00,,OVC033,0.00,VWS V14.00,2013-02-16 19:52:00,
2013-02-16 11:53:00,46.9,45.3,30.24,WNW,292,1.6,4.0,94,0.00,,OVC033,0.00,VWS V14.00,2013-02-16 19:53:00,
2013-02-16 11:54:00,46.9,45.0,30.24,WSW,248,0.0,4.0,93,0.00,,OVC033,0.00,VWS V14.00,2013-02-16 19:54:00,
2013-02-16 11:56:00,47.1,45.2,30.24,NW,315,1.3,3.4,93,0.04,,OVC033,0.04,VWS V14.00,2013-02-16 19:56:00,
2013-02-16 11:57:00,47.1,45.2,30.24,WNW,292,2.2,3.4,93,0.04,,OVC033,0.04,VWS V14.00,2013-02-16 19:57:00,
2013-02-16 11:58:00,47.1,45.2,30.24,ENE,68,2.5,3.4,93,0.04,,OVC033,0.04,VWS V14.00,2013-02-16 19:58:00,
2013-02-16 11:59:00,46.9,45.0,30.24,East,90,0.0,3.4,93,0.04,,OVC033,0.04,VWS V14.00,2013-02-16 19:59:00,
2013-02-16 12:01:00,46.9,45.0,30.24,WSW,248,1.1,3.4,93,0.04,,OVC033,0.04,VWS V14.00,2013-02-16 20:01:00,
2013-02-16 12:02:00,46.9,45.0,30.24,SSW,202,2.0,3.4,93,0.04,,OVC033,0.04,VWS V14.00,2013-02-16 20:02:00,
2013-02-16 12:03:00,46.9,44.7,30.24,WNW,292,1.6,3.4,92,0.04,,OVC033,0.04,VWS V14.00,2013-02-16 20:03:00,
2013-02-16 12:04:00,46.9,44.7,30.24,WNW,292,2.5,3.4,92,0.04,,OVC033,0.04,VWS V14.00,2013-02-16 20:04:00,
2013-02-16 12:06:00,46.9,44.5,30.24,ESE,112,1.3,3.4,91,0.04,,OVC033,0.04,VWS V14.00,2013-02-16 20:06:00,
2013-02-16 12:07:00,46.9,44.5,30.24,SE,135,0.0,3.4,91,0.04,,OVC033,0.04,VWS V14.00,2013-02-16 20:07:00,
2013-02-16 12:08:00,46.9,44.5,30.24,NE,45,0.0,3.4,91,0.04,,OVC033,0.04,VWS V14.00,2013-02-16 20:08:00,
2013-02-16 12:09:00,46.9,44.5,30.24,WNW,292,2.2,3.4,91,0.04,,OVC033,0.04,VWS V14.00,2013-02-16 20:09:00,
2013-02-16 12:11:00,47.1,44.6,30.24,WNW,292,0.0,2.5,91,0.04,,OVC033,0.04,VWS V14.00,2013-02-16 20:11:00,
2013-02-16 12:12:00,47.3,45.1,30.24,WNW,292,0.0,2.5,92,0.04,,OVC033,0.04,VWS V14.00,2013-02-16 20:12:00,
2013-02-16 12:13:00,47.3,45.1,30.24,ESE,112,0.0,2.5,92,0.04,,OVC033,0.04,VWS V14.00,2013-02-16 20:13:00,
2013-02-16 12:14:00,47.3,45.1,30.24,SSE,158,1.3,2.5,92,0.04,,OVC033,0.04,VWS V14.00,2013-02-16 20:14:00,
2013-02-16 12:16:00,47.5,45.0,30.24,West,270,0.0,2.5,91,0.04,,OVC033,0.04,VWS V14.00,2013-02-16 20:16:00,
2013-02-16 12:18:00,47.7,45.2,30.24,East,90,2.0,2.5,91,0.04,,OVC033,0.04,VWS V14.00,2013-02-16 20:18:00,
2013-02-16 12:19:00,47.7,45.2,30.24,WNW,292,0.9,2.5,91,0.04,,OVC033,0.04,VWS V14.00,2013-02-16 20:19:00,
2013-02-16 12:21:00,47.7,45.2,30.24,WSW,248,2.5,2.5,91,0.04,,OVC033,0.04,VWS V14.00,2013-02-16 20:21:00,
2013-02-16 12:23:00,47.8,45.3,30.24,WSW,248,0.9,2.5,91,0.04,,OVC033,0.04,VWS V14.00,2013-02-16 20:23:00,
2013-02-16 12:24:00,47.8,45.3,30.24,WSW,248,0.9,2.5,91,0.04,,OVC033,0.04,VWS V14.00,2013-02-16 20:24:00,
2013-02-16 12:26:00,48.0,45.2,30.24,WNW,292,1.3,2.5,90,0.04,,OVC033,0.04,VWS V14.00,2013-02-16 20:26:00,
2013-02-16 12:28:00,48.2,45.4,30.24,SSW,202,1.6,2.5,90,0.04,,OVC033,0.04,VWS V14.00,2013-02-16 20:28:00,
2013-02-16 12:29:00,48.2,45.4,30.24,NNW,338,0.9,2.5,90,0.04,,OVC033,0.04,VWS V14.00,2013-02-16 20:29:00,
2013-02-16 12:32:00,48.6,45.8,30.24,WSW,248,2.0,2.5,90,0.04,,OVC050,0.04,VWS V14.00,2013-02-16 20:32:00,
2013-02-16 12:33:00,48.7,45.7,30.24,WNW,292,1.1,2.5,89,0.04,,OVC050,0.04,VWS V14.00,2013-02-16 20:33:00,
2013-02-16 12:34:00,48.7,45.7,30.24,WNW,292,1.1,2.5,89,0.04,,OVC050,0.04,VWS V14.00,2013-02-16 20:34:00,
2013-02-16 12:37:00,48.9,45.8,30.24,WSW,248,0.0,2.9,89,0.04,,OVC050,0.04,VWS V14.00,2013-02-16 20:37:00,
2013-02-16 12:38:00,48.9,45.8,30.24,NNW,338,1.6,2.9,89,0.04,,OVC050,0.04,VWS V14.00,2013-02-16 20:38:00,
2013-02-16 12:39:00,48.9,45.8,30.24,NNW,338,1.6,2.9,89,0.04,,OVC050,0.04,VWS V14.00,2013-02-16 20:39:00,
2013-02-16 12:42:00,49.3,46.2,30.24,NNW,338,0.0,2.9,89,0.04,,OVC050,0.04,VWS V14.00,2013-02-16 20:42:00,
2013-02-16 12:43:00,49.3,46.2,30.24,ESE,112,3.6,3.6,89,0.04,,OVC050,0.04,VWS V14.00,2013-02-16 20:43:00,
2013-02-16 12:44:00,49.3,46.2,30.24,WNW,292,1.1,3.6,89,0.04,,OVC050,0.04,VWS V14.00,2013-02-16 20:44:00,
2013-02-16 12:47:00,49.1,45.7,30.24,WNW,292,0.9,3.6,88,0.04,,OVC050,0.04,VWS V14.00,2013-02-16 20:47:00,
2013-02-16 12:48:00,49.1,45.7,30.24,NNE,22,0.0,3.6,88,0.04,,OVC049,0.04,VWS V14.00,2013-02-16 20:48:00,
2013-02-16 12:49:00,49.3,45.9,30.24,WNW,292,3.1,3.6,88,0.04,,OVC049,0.04,VWS V14.00,2013-02-16 20:49:00,
2013-02-16 12:52:00,49.1,45.7,30.24,WSW,248,3.4,3.6,88,0.04,,OVC049,0.04,VWS V14.00,2013-02-16 20:52:00,
2013-02-16 12:53:00,49.1,45.4,30.24,SSE,158,0.0,3.6,87,0.04,,OVC049,0.04,VWS V14.00,2013-02-16 20:53:00,
2013-02-16 12:54:00,49.1,45.4,30.24,WNW,292,2.2,3.6,87,0.04,,OVC049,0.04,VWS V14.00,2013-02-16 20:54:00,
2013-02-16 12:57:00,49.1,45.4,30.24,ENE,68,3.6,3.6,87,0.00,,OVC049,0.04,VWS V14.00,2013-02-16 20:57:00,
2013-02-16 12:58:00,49.1,45.4,30.24,SSW,202,0.0,3.6,87,0.00,,OVC049,0.04,VWS V14.00,2013-02-16 20:58:00,
2013-02-16 12:59:00,49.1,45.4,30.24,WNW,292,0.0,3.6,87,0.00,,OVC049,0.04,VWS V14.00,2013-02-16 20:59:00,
2013-02-16 13:02:00,49.1,45.4,30.24,WNW,292,1.3,3.6,87,0.00,,OVC049,0.04,VWS V14.00,2013-02-16 21:02:00,
2013-02-16 13:03:00,49.1,45.1,30.24,ENE,68,0.0,3.6,86,0.00,,OVC049,0.04,VWS V14.00,2013-02-16 21:03:00,
2013-02-16 13:04:00,49.1,45.1,30.24,NNW,338,0.0,3.6,86,0.00,,OVC049,0.04,VWS V14.00,2013-02-16 21:04:00,
2013-02-16 13:07:00,49.1,45.1,30.24,WSW,248,0.0,3.6,86,0.00,,OVC049,0.04,VWS V14.00,2013-02-16 21:07:00,
2013-02-16 13:08:00,49.1,45.1,30.24,WNW,292,0.9,3.6,86,0.00,,OVC049,0.04,VWS V14.00,2013-02-16 21:08:00,
2013-02-16 13:09:00,49.1,45.1,30.24,West,270,1.6,3.6,86,0.00,,OVC049,0.04,VWS V14.00,2013-02-16 21:09:00,
2013-02-16 13:12:00,49.1,45.1,30.24,WNW,292,1.6,3.6,86,0.00,,OVC049,0.04,VWS V14.00,2013-02-16 21:12:00,
2013-02-16 13:13:00,49.1,45.1,30.24,WSW,248,0.9,3.6,86,0.00,,OVC049,0.04,VWS V14.00,2013-02-16 21:13:00,
2013-02-16 13:14:00,49.1,45.1,30.24,WNW,292,2.2,2.5,86,0.00,,OVC049,0.04,VWS V14.00,2013-02-16 21:14:00,
2013-02-16 13:17:00,49.1,45.1,30.24,ESE,112,0.0,2.5,86,0.00,,OVC049,0.04,VWS V14.00,2013-02-16 21:17:00,
2013-02-16 13:18:00,49.1,45.1,30.24,South,180,1.3,2.5,86,0.00,,OVC049,0.04,VWS V14.00,2013-02-16 21:18:00,
2013-02-16 13:19:00,49.1,45.1,30.24,SSW,202,0.0,2.5,86,0.00,,OVC049,0.04,VWS V14.00,2013-02-16 21:19:00,
2013-02-16 13:22:00,48.9,44.9,30.24,ENE,68,2.2,2.5,86,0.00,,OVC049,0.04,VWS V14.00,2013-02-16 21:22:00,
2013-02-16 13:23:00,48.9,44.9,30.24,East,90,0.0,2.5,86,0.00,,OVC049,0.04,VWS V14.00,2013-02-16 21:23:00,
2013-02-16 13:24:00,48.9,44.9,30.24,NNE,22,0.0,2.5,86,0.00,,OVC049,0.04,VWS V14.00,2013-02-16 21:24:00,
2013-02-16 13:25:00,48.9,44.9,30.24,NNE,22,0.0,2.5,86,0.00,,OVC049,0.04,VWS V14.00,2013-02-16 21:25:00,
2013-02-16 13:27:00,49.1,45.1,30.24,SE,135,3.6,3.6,86,0.00,,OVC049,0.04,VWS V14.00,2013-02-16 21:27:00,
2013-02-16 13:28:00,49.1,45.1,30.24,WNW,292,0.0,3.6,86,0.00,,OVC049,0.04,VWS V14.00,2013-02-16 21:28:00,
2013-02-16 13:29:00,49.3,45.3,30.24,NNE,22,1.1,3.6,86,0.00,,OVC049,0.04,VWS V14.00,2013-02-16 21:29:00,
2013-02-16 13:30:00,49.3,45.3,30.24,WSW,248,0.0,3.6,86,0.00,,OVC049,0.04,VWS V14.00,2013-02-16 21:30:00,
2013-02-16 13:32:00,49.5,45.2,30.24,North,0,2.2,3.6,85,0.00,,OVC046,0.04,VWS V14.00,2013-02-16 21:32:00,
2013-02-16 13:33:00,49.5,45.2,30.24,West,270,4.3,4.3,85,0.00,,OVC046,0.04,VWS V14.00,2013-02-16 21:33:00,
2013-02-16 13:34:00,49.5,45.2,30.24,ENE,68,0.0,4.3,85,0.00,,OVC046,0.04,VWS V14.00,2013-02-16 21:34:00,
2013-02-16 13:35:00,49.5,45.2,30.24,ENE,68,0.0,4.3,85,0.00,,OVC046,0.04,VWS V14.00,2013-02-16 21:35:00,
2013-02-16 13:37:00,49.3,44.7,30.24,WSW,248,0.0,4.3,84,0.00,,OVC046,0.04,VWS V14.00,2013-02-16 21:37:00,
2013-02-16 13:38:00,49.3,44.7,30.24,WNW,292,0.0,4.3,84,0.00,,OVC046,0.04,VWS V14.00,2013-02-16 21:38:00,
2013-02-16 13:39:00,49.3,44.7,30.24,NE,45,1.6,4.3,84,0.00,,OVC046,0.04,VWS V14.00,2013-02-16 21:39:00,
2013-02-16 13:40:00,49.3,44.7,30.24,NE,45,1.6,4.3,84,0.00,,OVC046,0.04,VWS V14.00,2013-02-16 21:40:00,
2013-02-16 13:42:00,49.3,44.3,30.24,WNW,292,4.3,4.3,83,0.00,,OVC046,0.04,VWS V14.00,2013-02-16 21:42:00,
2013-02-16 13:43:00,49.1,43.8,30.24,West,270,1.3,4.3,82,0.00,,OVC046,0.04,VWS V14.00,2013-02-16 21:43:00,
2013-02-16 13:44:00,49.1,43.8,30.24,WNW,292,2.0,4.3,82,0.00,,OVC046,0.04,VWS V14.00,2013-02-16 21:44:00,
2013-02-16 13:45:00,49.1,43.8,30.24,WNW,292,2.0,4.3,82,0.00,,OVC046,0.04,VWS V14.00,2013-02-16 21:45:00,
2013-02-16 13:47:00,49.1,43.5,30.24,WSW,248,4.0,4.3,81,0.00,,OVC046,0.04,VWS V14.00,2013-02-16 21:47:00,
2013-02-16 13:48:00,49.1,43.2,30.24,WSW,248,2.5,4.3,80,0.00,,FEW045,0.04,VWS V14.00,2013-02-16 21:48:00,
2013-02-16 13:49:00,49.1,43.2,30.24,WNW,292,1.3,4.3,80,0.00,,FEW045,0.04,VWS V14.00,2013-02-16 21:49:00,
2013-02-16 13:50:00,49.1,43.2,30.24,WNW,292,1.3,4.3,80,0.00,,FEW045,0.04,VWS V14.00,2013-02-16 21:50:00,
2013-02-16 13:52:00,49.1,43.2,30.24,NW,315,0.0,4.3,80,0.00,,FEW045,0.04,VWS V14.00,2013-02-16 21:52:00,
2013-02-16 13:53:00,49.1,43.2,30.24,WNW,292,2.9,4.3,80,0.00,,FEW045,0.04,VWS V14.00,2013-02-16 21:53:00,
2013-02-16 13:54:00,49.1,43.2,30.24,East,90,2.2,4.3,80,0.00,,FEW045,0.04,VWS V14.00,2013-02-16 21:54:00,
2013-02-16 13:55:00,49.1,43.2,30.24,West,270,3.4,4.3,80,0.00,,FEW045,0.04,VWS V14.00,2013-02-16 21:55:00,
2013-02-16 13:57:00,49.3,43.4,30.24,ENE,68,2.9,4.3,80,0.00,,FEW045,0.04,VWS V14.00,2013-02-16 21:57:00,
2013-02-16 13:59:00,49.3,43.4,30.21,NW,315,1.1,4.0,80,0.00,,FEW045,0.04,VWS V14.00,2013-02-16 21:59:00,
2013-02-16 14:00:00,49.1,42.9,30.21,SSW,202,2.9,4.0,79,0.00,,FEW045,0.04,VWS V14.00,2013-02-16 22:00:00,
2013-02-16 14:02:00,49.1,42.9,30.21,SSW,202,2.7,4.0,79,0.00,,FEW045,0.04,VWS V14.00,2013-02-16 22:02:00,
2013-02-16 14:04:00,48.9,42.7,30.21,WNW,292,3.1,4.0,79,0.00,,FEW045,0.04,VWS V14.00,2013-02-16 22:04:00,
2013-02-16 14:05:00,48.9,42.4,30.21,WNW,292,2.2,3.8,78,0.00,,FEW045,0.04,VWS V14.00,2013-02-16 22:05:00,
2013-02-16 14:07:00,48.7,42.5,30.21,WSW,248,1.1,3.8,79,0.00,,FEW045,0.04,VWS V14.00,2013-02-16 22:07:00,
2013-02-16 14:09:00,48.7,42.5,30.21,West,270,1.1,3.8,79,0.00,,FEW045,0.04,VWS V14.00,2013-02-16 22:09:00,
2013-02-16 14:10:00,48.9,42.7,30.21,West,270,2.7,3.8,79,0.00,,FEW045,0.04,VWS V14.00,2013-02-16 22:10:00,
2013-02-16 14:12:00,48.9,42.7,30.21,WNW,292,0.0,3.8,79,0.00,,FEW045,0.04,VWS V14.00,2013-02-16 22:12:00,
2013-02-16 14:14:00,49.1,42.9,30.21,West,270,3.1,3.8,79,0.00,,FEW045,0.04,VWS V14.00,2013-02-16 22:14:00,
2013-02-16 14:15:00,49.1,42.9,30.21,SSW,202,3.8,3.8,79,0.00,,FEW045,0.04,VWS V14.00,2013-02-16 22:15:00,
2013-02-16 14:17:00,49.1,42.5,30.21,WSW,248,0.0,3.8,78,0.00,,FEW045,0.04,VWS V14.00,2013-02-16 22:17:00,
2013-02-16 14:19:00,49.3,42.7,30.21,ESE,112,0.0,3.8,78,0.00,,FEW045,0.04,VWS V14.00,2013-02-16 22:19:00,
2013-02-16 14:20:00,49.3,42.7,30.21,West,270,1.6,3.8,78,0.00,,FEW045,0.04,VWS V14.00,2013-02-16 22:20:00,
2013-02-16 14:23:00,49.3,42.7,30.21,WNW,292,1.3,3.8,78,0.00,,FEW045,0.04,VWS V14.00,2013-02-16 22:23:00,
2013-02-16 14:24:00,49.3,42.7,30.21,SW,225,4.0,4.0,78,0.00,,FEW045,0.04,VWS V14.00,2013-02-16 22:24:00,
2013-02-16 14:25:00,49.3,42.7,30.21,NW,315,0.0,4.0,78,0.00,,FEW045,0.04,VWS V14.00,2013-02-16 22:25:00,
2013-02-16 14:28:00,49.5,42.9,30.21,West,270,5.4,5.4,78,0.00,,FEW045,0.04,VWS V14.00,2013-02-16 22:28:00,
2013-02-16 14:29:00,49.5,42.9,30.21,NNW,338,2.7,5.4,78,0.00,,FEW045,0.04,VWS V14.00,2013-02-16 22:29:00,
2013-02-16 14:30:00,49.5,42.6,30.21,WSW,248,3.4,5.4,77,0.00,,FEW045,0.04,VWS V14.00,2013-02-16 22:30:00,
2013-02-16 14:33:00,49.6,43.1,30.21,West,270,0.0,5.4,78,0.00,,CLR,0.04,VWS V14.00,2013-02-16 22:33:00,
2013-02-16 14:34:00,49.6,43.1,30.21,NE,45,0.0,5.4,78,0.00,,CLR,0.04,VWS V14.00,2013-02-16 22:34:00,
2013-02-16 14:35:00,49.6,43.1,30.21,NE,45,0.0,5.4,78,0.00,,CLR,0.04,VWS V14.00,2013-02-16 22:35:00,
2013-02-16 14:36:00,49.6,43.1,30.21,WSW,248,5.8,5.8,78,0.00,,CLR,0.04,VWS V14.00,2013-02-16 22:36:00,
2013-02-16 14:38:00,49.8,42.9,30.21,WNW,292,2.5,5.8,77,0.00,,CLR,0.04,VWS V14.00,2013-02-16 22:38:00,
2013-02-16 14:39:00,49.8,42.9,30.21,ESE,112,1.1,5.8,77,0.00,,CLR,0.04,VWS V14.00,2013-02-16 22:39:00,
2013-02-16 14:40:00,49.8,43.2,30.21,WNW,292,3.1,5.8,78,0.00,,CLR,0.04,VWS V14.00,2013-02-16 22:40:00,
2013-02-16 14:41:00,49.8,43.2,30.21,WSW,248,1.3,5.8,78,0.00,,CLR,0.04,VWS V14.00,2013-02-16 22:41:00,
2013-02-16 14:43:00,49.6,42.7,30.21,West,270,2.9,6.3,77,0.00,,CLR,0.04,VWS V14.00,2013-02-16 22:43:00,
2013-02-16 14:44:00,49.5,42.6,30.21,West,270,2.0,6.3,77,0.00,,CLR,0.04,VWS V14.00,2013-02-16 22:44:00,
2013-02-16 14:45:00,49.5,42.6,30.21,WNW,292,2.5,6.3,77,0.00,,CLR,0.04,VWS V14.00,2013-02-16 22:45:00,
2013-02-16 14:46:00,49.5,42.6,30.21,WNW,292,2.5,6.3,77,0.00,,CLR,0.04,VWS V14.00,2013-02-16 22:46:00,
2013-02-16 14:48:00,49.6,43.1,30.21,WSW,248,2.0,6.3,78,0.00,,FEW047,0.04,VWS V14.00,2013-02-16 22:48:00,
2013-02-16 14:49:00,49.6,43.1,30.21,West,270,0.9,6.3,78,0.00,,FEW047,0.04,VWS V14.00,2013-02-16 22:49:00,
2013-02-16 14:50:00,49.6,43.1,30.21,WNW,292,1.1,6.3,78,0.00,,FEW047,0.04,VWS V14.00,2013-02-16 22:50:00,
2013-02-16 14:51:00,49.5,42.6,30.21,WSW,248,2.0,6.3,77,0.00,,FEW047,0.04,VWS V14.00,2013-02-16 22:51:00,
2013-02-16 14:53:00,49.3,42.4,30.21,WNW,292,3.1,6.3,77,0.00,,FEW047,0.04,VWS V14.00,2013-02-16 22:53:00,
2013-02-16 14:54:00,49.1,42.2,30.21,WNW,292,1.3,6.3,77,0.00,,FEW047,0.04,VWS V14.00,2013-02-16 22:54:00,
2013-02-16 14:55:00,49.1,42.2,30.21,WNW,292,0.0,6.3,77,0.00,,FEW047,0.04,VWS V14.00,2013-02-16 22:55:00,
2013-02-16 14:56:00,49.1,42.2,30.21,WSW,248,2.5,6.3,77,0.00,,FEW047,0.04,VWS V14.00,2013-02-16 22:56:00,
2013-02-16 14:58:00,48.9,42.0,30.21,NNW,338,1.6,6.3,77,0.00,,FEW047,0.04,VWS V14.00,2013-02-16 22:58:00,
2013-02-16 14:59:00,48.9,42.0,30.21,NNW,338,1.6,6.3,77,0.00,,FEW047,0.04,VWS V14.00,2013-02-16 22:59:00,
2013-02-16 15:00:00,49.1,42.2,30.21,WNW,292,2.9,3.4,77,0.00,,FEW047,0.04,VWS V14.00,2013-02-16 23:00:00,
2013-02-16 15:01:00,48.9,42.0,30.21,WNW,292,2.2,3.4,77,0.00,,FEW047,0.04,VWS V14.00,2013-02-16 23:01:00,
2013-02-16 15:03:00,48.9,42.0,30.21,West,270,3.1,3.4,77,0.00,,FEW047,0.04,VWS V14.00,2013-02-16 23:03:00,
2013-02-16 15:04:00,48.9,42.0,30.21,WNW,292,3.4,3.4,77,0.00,,FEW047,0.04,VWS V14.00,2013-02-16 23:04:00,
2013-02-16 15:05:00,48.9,42.0,30.21,WNW,292,2.9,3.4,77,0.00,,FEW047,0.04,VWS V14.00,2013-02-16 23:05:00,
2013-02-16 15:06:00,48.9,42.0,30.21,WNW,292,3.8,3.8,77,0.00,,FEW047,0.04,VWS V14.00,2013-02-16 23:06:00,
2013-02-16 15:08:00,48.7,41.9,30.21,WSW,248,0.0,3.8,77,0.00,,FEW047,0.04,VWS V14.00,2013-02-16 23:08:00,
2013-02-16 15:09:00,48.7,41.9,30.21,NNW,338,3.1,3.8,77,0.00,,FEW047,0.04,VWS V14.00,2013-02-16 23:09:00,
2013-02-16 15:10:00,48.7,41.9,30.21,West,270,0.0,3.8,77,0.00,,FEW047,0.04,VWS V14.00,2013-02-16 23:10:00,
2013-02-16 15:11:00,48.7,41.9,30.21,WSW,248,0.0,3.8,77,0.00,,FEW047,0.04,VWS V14.00,2013-02-16 23:11:00,
2013-02-16 15:13:00,48.6,41.7,30.24,WNW,292,0.9,3.8,77,0.00,,FEW047,0.04,VWS V14.00,2013-02-16 23:13:00,
2013-02-16 15:14:00,48.6,41.7,30.24,West,270,2.7,3.8,77,0.00,,FEW047,0.04,VWS V14.00,2013-02-16 23:14:00,
2013-02-16 15:15:00,48.6,41.7,30.24,West,270,0.0,3.8,77,0.00,,FEW047,0.04,VWS V14.00,2013-02-16 23:15:00,
2013-02-16 15:16:00,48.6,41.7,30.24,South,180,2.7,3.8,77,0.00,,FEW047,0.04,VWS V14.00,2013-02-16 23:16:00,
2013-02-16 15:18:00,48.2,41.0,30.24,WSW,248,2.0,7.4,76,0.00,,FEW047,0.04,VWS V14.00,2013-02-16 23:18:00,
2013-02-16 15:19:00,48.2,40.7,30.24,ESE,112,0.9,7.4,75,0.00,,FEW047,0.04,VWS V14.00,2013-02-16 23:19:00,
2013-02-16 15:20:00,48.2,40.7,30.24,WSW,248,2.0,7.4,75,0.00,,FEW047,0.04,VWS V14.00,2013-02-16 23:20:00,
2013-02-16 15:21:00,48.2,40.7,30.24,WSW,248,0.0,7.4,75,0.00,,FEW047,0.04,VWS V14.00,2013-02-16 23:21:00,
2013-02-16 15:23:00,48.2,40.7,30.24,West,270,2.0,7.4,75,0.00,,FEW047,0.04,VWS V14.00,2013-02-16 23:23:00,
2013-02-16 15:24:00,48.4,40.8,30.24,WSW,248,2.9,7.4,75,0.00,,FEW047,0.04,VWS V14.00,2013-02-16 23:24:00,
2013-02-16 15:25:00,48.4,40.8,30.24,WNW,292,2.7,7.4,75,0.00,,FEW047,0.04,VWS V14.00,2013-02-16 23:25:00,
2013-02-16 15:26:00,48.4,40.8,30.24,SSW,202,2.5,7.4,75,0.00,,FEW047,0.04,VWS V14.00,2013-02-16 23:26:00,
2013-02-16 15:28:00,48.2,40.7,30.24,WNW,292,2.0,2.9,75,0.00,,FEW047,0.04,VWS V14.00,2013-02-16 23:28:00,
2013-02-16 15:29:00,48.2,40.7,30.24,WSW,248,2.7,2.9,75,0.00,,FEW047,0.04,VWS V14.00,2013-02-16 23:29:00,
2013-02-16 15:30:00,48.2,40.3,30.24,WSW,248,2.7,2.7,74,0.00,,FEW047,0.04,VWS V14.00,2013-02-16 23:30:00,
2013-02-16 15:31:00,48.2,40.3,30.24,SSW,202,2.5,2.7,74,0.00,,SCT050,0.04,VWS V14.00,2013-02-16 23:31:00,
2013-02-16 15:33:00,48.2,40.3,30.24,WNW,292,2.9,4.3,74,0.00,,FEW033,0.04,VWS V14.00,2013-02-16 23:33:00,
2013-02-16 15:34:00,48.2,40.3,30.24,WNW,292,3.1,4.3,74,0.00,,FEW033,0.04,VWS V14.00,2013-02-16 23:34:00,
2013-02-16 15:35:00,48.2,40.3,30.24,WSW,248,0.0,4.3,74,0.00,,FEW033,0.04,VWS V14.00,2013-02-16 23:35:00,
2013-02-16 15:36:00,48.0,40.5,30.24,WNW,292,1.6,4.3,75,0.00,,FEW033,0.04,VWS V14.00,2013-02-16 23:36:00,
2013-02-16 15:38:00,48.0,40.5,30.24,SSW,202,1.1,4.3,75,0.00,,FEW033,0.04,VWS V14.00,2013-02-16 23:38:00,
2013-02-16 15:39:00,48.0,40.5,30.24,SSW,202,1.1,4.3,75,0.00,,FEW033,0.04,VWS V14.00,2013-02-16 23:39:00,
2013-02-16 15:40:00,48.0,40.5,30.24,West,270,2.0,4.3,75,0.00,,FEW033,0.04,VWS V14.00,2013-02-16 23:40:00,
2013-02-16 15:41:00,48.0,40.5,30.24,WNW,292,4.9,4.9,75,0.00,,FEW033,0.04,VWS V14.00,2013-02-16 23:41:00,
2013-02-16 15:43:00,47.8,40.3,30.24,North,0,2.0,4.9,75,0.00,,FEW033,0.04,VWS V14.00,2013-02-16 23:43:00,
2013-02-16 15:44:00,47.8,40.3,30.24,SSW,202,2.2,4.9,75,0.00,,FEW033,0.04,VWS V14.00,2013-02-16 23:44:00,
2013-02-16 15:45:00,47.7,40.1,30.24,SSW,202,2.2,4.9,75,0.00,,FEW033,0.04,VWS V14.00,2013-02-16 23:45:00,
2013-02-16 15:46:00,47.7,40.1,30.24,West,270,2.9,2.9,75,0.00,,FEW033,0.04,VWS V14.00,2013-02-16 23:46:00,
2013-02-16 15:48:00,47.7,40.1,30.24,SSE,158,2.0,3.6,75,0.00,,BKN048,0.04,VWS V14.00,2013-02-16 23:48:00,
2013-02-16 15:49:00,47.5,40.0,30.24,WNW,292,2.7,3.6,75,0.00,,BKN048,0.04,VWS V14.00,2013-02-16 23:49:00,
2013-02-16 15:50:00,47.5,40.0,30.24,West,270,2.9,3.6,75,0.00,,BKN048,0.04,VWS V14.00,2013-02-16 23:50:00,
2013-02-16 15:51:00,47.7,40.5,30.24,SE,135,2.7,3.6,76,0.00,,BKN048,0.04,VWS V14.00,2013-02-16 23:51:00,
2013-02-16 15:53:00,47.5,40.3,30.24,WSW,248,2.0,4.0,76,0.00,,BKN048,0.04,VWS V14.00,2013-02-16 23:53:00,
2013-02-16 15:54:00,47.5,40.0,30.24,WNW,292,7.4,7.4,75,0.00,,BKN048,0.04,VWS V14.00,2013-02-16 23:54:00,
2013-02-16 15:55:00,47.5,40.0,30.24,WSW,248,1.1,7.4,75,0.00,,BKN048,0.04,VWS V14.00,2013-02-16 23:55:00,
2013-02-16 15:56:00,47.5,40.0,30.24,SSW,202,3.8,7.4,75,0.00,,BKN048,0.04,VWS V14.00,2013-02-16 23:56:00,
2013-02-16 15:58:00,47.5,40.0,30.21,SE,135,1.3,7.4,75,0.00,,BKN048,0.04,VWS V14.00,2013-02-16 23:58:00,
2013-02-16 15:59:00,47.5,40.0,30.21,WSW,248,5.4,7.4,75,0.00,,BKN048,0.04,VWS V14.00,2013-02-16 23:59:00,
2013-02-16 16:00:00,47.5,40.0,30.21,WNW,292,7.2,7.4,75,0.00,,BKN048,0.04,VWS V14.00,2013-02-17 00:00:00,
2013-02-16 16:01:00,47.3,39.8,30.21,WNW,292,2.9,7.4,75,0.00,,BKN048,0.04,VWS V14.00,2013-02-17 00:01:00,
2013-02-16 16:03:00,47.3,40.1,30.21,SSE,158,2.9,7.4,76,0.00,,BKN048,0.04,VWS V14.00,2013-02-17 00:03:00,
2013-02-16 16:04:00,47.3,40.1,30.21,WNW,292,1.3,7.4,76,0.00,,BKN048,0.04,VWS V14.00,2013-02-17 00:04:00,
2013-02-16 16:05:00,47.3,40.1,30.21,WSW,248,2.7,7.4,76,0.00,,OVC047,0.04,VWS V14.00,2013-02-17 00:05:00,
2013-02-16 16:06:00,47.3,40.1,30.21,WNW,292,6.0,7.4,76,0.00,,OVC047,0.04,VWS V14.00,2013-02-17 00:06:00,
2013-02-16 16:08:00,47.3,40.1,30.21,NW,315,2.0,7.4,76,0.00,,OVC047,0.04,VWS V14.00,2013-02-17 00:08:00,
2013-02-16 16:09:00,47.3,40.1,30.21,WNW,292,4.0,7.4,76,0.00,,OVC047,0.04,VWS V14.00,2013-02-17 00:09:00,
2013-02-16 16:10:00,47.3,40.1,30.21,WNW,292,4.0,7.2,76,0.00,,OVC047,0.04,VWS V14.00,2013-02-17 00:10:00,
2013-02-16 16:11:00,47.1,40.0,30.21,West,270,1.6,7.2,76,0.00,,OVC047,0.04,VWS V14.00,2013-02-17 00:11:00,
2013-02-16 16:14:00,47.1,40.0,30.24,WNW,292,2.7,7.2,76,0.00,,OVC047,0.04,VWS V14.00,2013-02-17 00:14:00,
2013-02-16 16:15:00,46.9,39.8,30.24,West,270,2.9,7.2,76,0.00,,OVC047,0.04,VWS V14.00,2013-02-17 00:15:00,
2013-02-16 16:16:00,46.9,39.8,30.24,WNW,292,1.6,7.2,76,0.00,,OVC047,0.04,VWS V14.00,2013-02-17 00:16:00,
2013-02-16 16:19:00,46.8,39.6,30.24,SSE,158,3.6,6.0,76,0.00,,OVC047,0.04,VWS V14.00,2013-02-17 00:19:00,
2013-02-16 16:20:00,46.8,39.6,30.24,SSE,158,3.8,6.0,76,0.00,,OVC047,0.04,VWS V14.00,2013-02-17 00:20:00,
2013-02-16 16:22:00,46.8,39.6,30.24,WSW,248,3.1,6.0,76,0.00,,OVC047,0.04,VWS V14.00,2013-02-17 00:22:00,
2013-02-16 16:24:00,46.6,39.4,30.24,WNW,292,2.7,5.6,76,0.00,,OVC047,0.04,VWS V14.00,2013-02-17 00:24:00,
2013-02-16 16:25:00,46.6,39.4,30.24,WSW,248,6.5,6.5,76,0.00,,OVC047,0.04,VWS V14.00,2013-02-17 00:25:00,
2013-02-16 16:27:00,46.4,39.6,30.24,WNW,292,3.1,6.5,77,0.00,,OVC047,0.04,VWS V14.00,2013-02-17 00:27:00,
2013-02-16 16:29:00,46.4,39.6,30.24,West,270,2.9,6.5,77,0.00,,OVC047,0.04,VWS V14.00,2013-02-17 00:29:00,
2013-02-16 16:30:00,46.4,39.6,30.24,WSW,248,3.4,6.5,77,0.00,,OVC047,0.04,VWS V14.00,2013-02-17 00:30:00,
2013-02-16 16:32:00,46.2,39.8,30.24,WNW,292,3.6,6.5,78,0.00,,OVC045,0.04,VWS V14.00,2013-02-17 00:32:00,
2013-02-16 16:34:00,46.2,39.8,30.24,West,270,2.2,6.5,78,0.00,,OVC045,0.04,VWS V14.00,2013-02-17 00:34:00,
2013-02-16 16:35:00,46.0,39.6,30.24,WNW,292,1.1,6.5,78,0.00,,OVC045,0.04,VWS V14.00,2013-02-17 00:35:00,
2013-02-16 16:37:00,45.9,39.7,30.24,WNW,292,3.6,6.5,79,0.00,,OVC045,0.04,VWS V14.00,2013-02-17 00:37:00,
2013-02-16 16:39:00,45.7,39.5,30.24,NNW,338,0.0,6.5,79,0.00,,OVC045,0.04,VWS V14.00,2013-02-17 00:39:00,
2013-02-16 16:40:00,45.7,39.5,30.24,NNW,338,0.0,6.5,79,0.00,,OVC045,0.04,VWS V14.00,2013-02-17 00:40:00,
2013-02-16 16:42:00,45.5,39.4,30.24,WSW,248,2.9,4.3,79,0.00,,OVC045,0.04,VWS V14.00,2013-02-17 00:42:00,
2013-02-16 16:44:00,45.5,39.4,30.24,WSW,248,1.1,4.3,79,0.00,,OVC045,0.04,VWS V14.00,2013-02-17 00:44:00,
2013-02-16 16:45:00,45.5,39.4,30.24,WNW,292,3.4,4.3,79,0.00,,OVC045,0.04,VWS V14.00,2013-02-17 00:45:00,
2013-02-16 16:46:00,45.5,39.4,30.24,ESE,112,2.5,3.8,79,0.00,,OVC045,0.04,VWS V14.00,2013-02-17 00:46:00,
2013-02-16 16:47:00,45.5,39.4,30.24,WSW,248,2.5,3.8,79,0.00,,OVC045,0.04,VWS V14.00,2013-02-17 00:47:00,
2013-02-16 16:49:00,45.5,39.4,30.24,WSW,248,2.5,3.6,79,0.00,,OVC065,0.04,VWS V14.00,2013-02-17 00:49:00,
2013-02-16 16:50:00,45.5,39.4,30.24,WSW,248,1.1,3.6,79,0.00,,OVC065,0.04,VWS V14.00,2013-02-17 00:50:00,
2013-02-16 16:51:00,45.5,39.4,30.24,West,270,3.6,3.6,79,0.00,,OVC065,0.04,VWS V14.00,2013-02-17 00:51:00,
2013-02-16 16:52:00,45.5,39.4,30.24,WNW,292,2.0,3.6,79,0.00,,OVC065,0.04,VWS V14.00,2013-02-17 00:52:00,
2013-02-16 16:54:00,45.5,39.4,30.24,WNW,292,2.0,3.6,79,0.00,,OVC065,0.04,VWS V14.00,2013-02-17 00:54:00,
2013-02-16 16:55:00,45.5,39.7,30.24,WSW,248,0.0,3.6,80,0.00,,OVC065,0.04,VWS V14.00,2013-02-17 00:55:00,
2013-02-16 16:56:00,45.5,39.7,30.24,WSW,248,2.0,3.6,80,0.00,,OVC065,0.04,VWS V14.00,2013-02-17 00:56:00,
2013-02-16 16:57:00,45.5,39.7,30.24,NW,315,1.3,3.6,80,0.00,,OVC065,0.04,VWS V14.00,2013-02-17 00:57:00,
2013-02-16 16:59:00,45.5,39.7,30.24,NW,315,2.9,3.6,80,0.00,,OVC065,0.04,VWS V14.00,2013-02-17 00:59:00,
2013-02-16 17:00:00,45.3,39.8,30.24,WSW,248,3.8,3.8,81,0.00,,OVC065,0.04,VWS V14.00,2013-02-17 01:00:00,
2013-02-16 17:01:00,45.3,39.8,30.24,WSW,248,1.3,3.8,81,0.00,,OVC065,0.04,VWS V14.00,2013-02-17 01:01:00,
2013-02-16 17:02:00,45.1,39.7,30.24,WSW,248,3.1,3.8,81,0.00,,OVC065,0.04,VWS V14.00,2013-02-17 01:02:00,
2013-02-16 17:04:00,45.1,39.7,30.24,WSW,248,3.8,3.8,81,0.00,,OVC065,0.04,VWS V14.00,2013-02-17 01:04:00,
2013-02-16 17:05:00,45.0,39.5,30.24,WNW,292,0.0,3.8,81,0.00,,OVC065,0.04,VWS V14.00,2013-02-17 01:05:00,
2013-02-16 17:06:00,45.0,39.5,30.24,WSW,248,3.4,3.8,81,0.00,,OVC065,0.04,VWS V14.00,2013-02-17 01:06:00,
2013-02-16 17:07:00,44.8,39.3,30.24,West,270,6.5,6.5,81,0.00,,OVC065,0.04,VWS V14.00,2013-02-17 01:07:00,
2013-02-16 17:09:00,44.8,39.3,30.24,WNW,292,2.5,6.5,81,0.00,,OVC065,0.04,VWS V14.00,2013-02-17 01:09:00,
2013-02-16 17:10:00,44.8,39.3,30.24,SSE,158,0.9,6.5,81,0.00,,OVC065,0.04,VWS V14.00,2013-02-17 01:10:00,
2013-02-16 17:11:00,44.6,39.1,30.24,WNW,292,2.7,6.5,81,0.00,,OVC065,0.04,VWS V14.00,2013-02-17 01:11:00,
2013-02-16 17:12:00,44.6,39.1,30.24,ESE,112,4.0,6.5,81,0.00,,OVC065,0.04,VWS V14.00,2013-02-17 01:12:00,
2013-02-16 17:14:00,44.4,39.0,30.24,WNW,292,0.0,6.5,81,0.00,,OVC065,0.04,VWS V14.00,2013-02-17 01:14:00,
2013-02-16 17:15:00,44.4,39.0,30.24,WNW,292,0.0,6.5,81,0.00,,OVC065,0.04,VWS V14.00,2013-02-17 01:15:00,
2013-02-16 17:16:00,44.4,39.0,30.24,WSW,248,0.0,6.5,81,0.00,,OVC065,0.04,VWS V14.00,2013-02-17 01:16:00,
2013-02-16 17:17:00,44.2,38.8,30.24,SSW,202,1.6,6.5,81,0.00,,OVC065,0.04,VWS V14.00,2013-02-17 01:17:00,
2013-02-16 17:19:00,44.2,38.8,30.24,West,270,0.0,6.5,81,0.00,,OVC065,0.04,VWS V14.00,2013-02-17 01:19:00,
2013-02-16 17:20:00,44.2,38.8,30.24,NE,45,0.0,6.5,81,0.00,,OVC065,0.04,VWS V14.00,2013-02-17 01:20:00,
2013-02-16 17:21:00,44.2,38.8,30.24,WSW,248,0.9,6.5,81,0.00,,OVC065,0.04,VWS V14.00,2013-02-17 01:21:00,
2013-02-16 17:22:00,44.1,38.9,30.24,West,270,2.5,6.5,82,0.00,,OVC065,0.04,VWS V14.00,2013-02-17 01:22:00,
2013-02-16 17:24:00,44.1,38.9,30.24,WSW,248,1.6,4.0,82,0.00,,OVC065,0.04,VWS V14.00,2013-02-17 01:24:00,
2013-02-16 17:25:00,44.1,38.9,30.24,East,90,3.1,4.0,82,0.00,,OVC065,0.04,VWS V14.00,2013-02-17 01:25:00,
2013-02-16 17:26:00,44.1,38.9,30.24,WNW,292,1.1,4.0,82,0.00,,OVC065,0.04,VWS V14.00,2013-02-17 01:26:00,
2013-02-16 17:27:00,44.1,38.9,30.24,WNW,292,1.1,4.0,82,0.00,,OVC065,0.04,VWS V14.00,2013-02-17 01:27:00,
2013-02-16 17:29:00,43.9,38.8,30.24,SW,225,0.0,4.0,82,0.00,,OVC065,0.04,VWS V14.00,2013-02-17 01:29:00,
2013-02-16 17:30:00,43.9,38.8,30.24,SW,225,0.0,3.4,82,0.00,,OVC065,0.04,VWS V14.00,2013-02-17 01:30:00,
2013-02-16 17:31:00,43.9,38.8,30.24,WSW,248,1.1,3.4,82,0.00,,OVC065,0.04,VWS V14.00,2013-02-17 01:31:00,
2013-02-16 17:32:00,43.9,38.8,30.24,WNW,292,0.0,3.4,82,0.00,,BKN034,0.04,VWS V14.00,2013-02-17 01:32:00,
2013-02-16 17:34:00,43.9,38.8,30.24,West,270,0.0,3.4,82,0.00,,BKN034,0.04,VWS V14.00,2013-02-17 01:34:00,
2013-02-16 17:35:00,43.7,38.6,30.24,NNE,22,0.9,3.4,82,0.00,,BKN034,0.04,VWS V14.00,2013-02-17 01:35:00,
2013-02-16 17:36:00,43.7,38.6,30.24,WSW,248,2.2,3.4,82,0.00,,BKN034,0.04,VWS V14.00,2013-02-17 01:36:00,
2013-02-16 17:37:00,43.7,38.6,30.24,WSW,248,2.2,3.4,82,0.00,,BKN034,0.04,VWS V14.00,2013-02-17 01:37:00,
2013-02-16 17:39:00,43.7,38.6,30.24,East,90,3.8,3.8,82,0.00,,BKN034,0.04,VWS V14.00,2013-02-17 01:39:00,
2013-02-16 17:40:00,43.7,38.6,30.24,East,90,3.8,3.8,82,0.00,,BKN034,0.04,VWS V14.00,2013-02-17 01:40:00,
2013-02-16 17:41:00,43.7,38.6,30.24,East,90,0.0,3.8,82,0.00,,BKN034,0.04,VWS V14.00,2013-02-17 01:41:00,
2013-02-16 17:42:00,43.7,38.6,30.24,SSW,202,1.1,3.8,82,0.00,,BKN034,0.04,VWS V14.00,2013-02-17 01:42:00,
2013-02-16 17:44:00,43.3,38.2,30.24,WNW,292,2.7,3.8,82,0.00,,BKN034,0.04,VWS V14.00,2013-02-17 01:44:00,
2013-02-16 17:45:00,43.3,38.2,30.24,East,90,0.9,3.8,82,0.00,,BKN034,0.04,VWS V14.00,2013-02-17 01:45:00,
2013-02-16 17:46:00,43.3,38.2,30.24,NE,45,1.6,3.8,82,0.00,,BKN034,0.04,VWS V14.00,2013-02-17 01:46:00,
2013-02-16 17:47:00,43.3,38.2,30.24,NNW,338,2.0,3.8,82,0.00,,BKN034,0.04,VWS V14.00,2013-02-17 01:47:00,
2013-02-16 17:49:00,43.2,38.0,30.24,SSE,158,0.0,3.8,82,0.00,,BKN042,0.04,VWS V14.00,2013-02-17 01:49:00,
2013-02-16 17:50:00,43.2,38.0,30.24,ESE,112,0.0,3.8,82,0.00,,BKN042,0.04,VWS V14.00,2013-02-17 01:50:00,
2013-02-16 17:51:00,43.2,38.0,30.24,East,90,0.0,3.8,82,0.00,,BKN042,0.04,VWS V14.00,2013-02-17 01:51:00,
2013-02-16 17:52:00,43.0,37.9,30.24,East,90,0.0,3.8,82,0.00,,BKN042,0.04,VWS V14.00,2013-02-17 01:52:00,
2013-02-16 17:54:00,42.8,37.7,30.24,East,90,2.9,3.8,82,0.00,,BKN042,0.04,VWS V14.00,2013-02-17 01:54:00,
2013-02-16 17:55:00,42.8,37.7,30.24,East,90,2.9,3.8,82,0.00,,BKN042,0.04,VWS V14.00,2013-02-17 01:55:00,
2013-02-16 17:56:00,42.8,37.7,30.24,NNW,338,0.0,3.8,82,0.00,,BKN042,0.04,VWS V14.00,2013-02-17 01:56:00,
2013-02-16 17:57:00,42.8,37.7,30.24,NNW,338,0.0,2.9,82,0.00,,BKN042,0.04,VWS V14.00,2013-02-17 01:57:00,
2013-02-16 17:59:00,43.0,37.9,30.24,ENE,68,0.0,2.9,82,0.00,,BKN042,0.04,VWS V14.00,2013-02-17 01:59:00,
2013-02-16 18:00:00,43.0,37.9,30.24,East,90,0.0,2.9,82,0.00,,BKN042,0.04,VWS V14.00,2013-02-17 02:00:00,
2013-02-16 18:01:00,43.0,37.9,30.24,ESE,112,0.0,2.9,82,0.00,,BKN042,0.04,VWS V14.00,2013-02-17 02:01:00,
2013-02-16 18:02:00,43.0,37.9,30.24,East,90,3.6,3.6,82,0.00,,BKN042,0.04,VWS V14.00,2013-02-17 02:02:00,
2013-02-16 18:04:00,42.8,37.7,30.24,WNW,292,0.0,3.6,82,0.00,,BKN042,0.04,VWS V14.00,2013-02-17 02:04:00,
2013-02-16 18:05:00,42.8,37.7,30.24,WNW,292,0.0,3.6,82,0.00,,BKN042,0.04,VWS V14.00,2013-02-17 02:05:00,
2013-02-16 18:06:00,42.8,37.7,30.24,NNW,338,0.0,3.6,82,0.00,,BKN042,0.04,VWS V14.00,2013-02-17 02:06:00,
2013-02-16 18:07:00,42.8,37.7,30.24,SSE,158,0.9,3.6,82,0.00,,BKN042,0.04,VWS V14.00,2013-02-17 02:07:00,
2013-02-16 18:09:00,42.8,37.7,30.24,SSW,202,0.0,3.6,82,0.00,,BKN042,0.04,VWS V14.00,2013-02-17 02:09:00,
2013-02-16 18:10:00,43.0,37.9,30.24,SSE,158,2.9,3.6,82,0.00,,BKN042,0.04,VWS V14.00,2013-02-17 02:10:00,
2013-02-16 18:11:00,43.0,37.9,30.24,WSW,248,1.3,3.6,82,0.00,,BKN042,0.04,VWS V14.00,2013-02-17 02:11:00,
2013-02-16 18:12:00,43.0,37.9,30.24,NNW,338,0.0,3.6,82,0.00,,BKN042,0.04,VWS V14.00,2013-02-17 02:12:00,
2013-02-16 18:14:00,43.0,37.9,30.24,SE,135,0.0,3.6,82,0.00,,BKN042,0.04,VWS V14.00,2013-02-17 02:14:00,
2013-02-16 18:15:00,43.0,37.9,30.24,SE,135,0.0,3.6,82,0.00,,BKN042,0.04,VWS V14.00,2013-02-17 02:15:00,
2013-02-16 18:16:00,43.0,37.9,30.24,WNW,292,0.0,3.6,82,0.00,,BKN042,0.04,VWS V14.00,2013-02-17 02:16:00,
2013-02-16 18:17:00,43.0,37.9,30.24,ENE,68,0.0,3.6,82,0.00,,BKN042,0.04,VWS V14.00,2013-02-17 02:17:00,
2013-02-16 18:19:00,43.0,37.9,30.24,East,90,0.0,3.6,82,0.00,,BKN042,0.04,VWS V14.00,2013-02-17 02:19:00,
2013-02-16 18:20:00,43.0,37.9,30.24,WNW,292,0.0,3.6,82,0.00,,BKN042,0.04,VWS V14.00,2013-02-17 02:20:00,
2013-02-16 18:21:00,43.0,37.9,30.24,WNW,292,0.0,2.9,82,0.00,,BKN042,0.04,VWS V14.00,2013-02-17 02:21:00,
2013-02-16 18:22:00,43.0,37.9,30.24,WNW,292,0.0,2.9,82,0.00,,BKN042,0.04,VWS V14.00,2013-02-17 02:22:00,
2013-02-16 18:24:00,43.0,37.9,30.24,WSW,248,0.0,2.9,82,0.00,,BKN042,0.04,VWS V14.00,2013-02-17 02:24:00,
2013-02-16 18:25:00,43.0,37.9,30.24,WSW,248,0.0,2.9,82,0.00,,BKN042,0.04,VWS V14.00,2013-02-17 02:25:00,
2013-02-16 18:26:00,43.2,38.0,30.24,WSW,248,0.0,2.9,82,0.00,,BKN042,0.04,VWS V14.00,2013-02-17 02:26:00,
2013-02-16 18:27:00,43.2,38.0,30.24,SSW,202,0.0,2.9,82,0.00,,BKN042,0.04,VWS V14.00,2013-02-17 02:27:00,
2013-02-16 18:30:00,43.0,37.9,30.24,SE,135,0.0,0.0,82,0.00,,BKN042,0.04,VWS V14.00,2013-02-17 02:30:00,
2013-02-16 18:31:00,43.0,37.9,30.24,SE,135,0.0,0.0,82,0.00,,BKN042,0.04,VWS V14.00,2013-02-17 02:31:00,
2013-02-16 18:32:00,43.0,38.2,30.24,ESE,112,0.0,0.0,83,0.00,,BKN041,0.04,VWS V14.00,2013-02-17 02:32:00,
2013-02-16 18:35:00,43.0,38.2,30.24,ESE,112,0.0,0.0,83,0.00,,BKN041,0.04,VWS V14.00,2013-02-17 02:35:00,
2013-02-16 18:36:00,43.0,38.2,30.24,ESE,112,0.0,0.0,83,0.00,,BKN041,0.04,VWS V14.00,2013-02-17 02:36:00,
2013-02-16 18:37:00,43.0,38.2,30.24,ESE,112,0.0,0.0,83,0.00,,BKN041,0.04,VWS V14.00,2013-02-17 02:37:00,
2013-02-16 18:40:00,43.0,38.2,30.24,East,90,0.0,0.0,83,0.00,,BKN041,0.04,VWS V14.00,2013-02-17 02:40:00,
2013-02-16 18:41:00,43.0,38.2,30.24,ENE,68,0.0,0.0,83,0.00,,BKN041,0.04,VWS V14.00,2013-02-17 02:41:00,
2013-02-16 18:42:00,43.0,38.2,30.24,ENE,68,0.0,0.0,83,0.00,,BKN041,0.04,VWS V14.00,2013-02-17 02:42:00,
2013-02-16 18:45:00,43.0,38.2,30.24,ENE,68,0.0,0.0,83,0.00,,BKN041,0.04,VWS V14.00,2013-02-17 02:45:00,
2013-02-16 18:46:00,43.0,38.2,30.24,WSW,248,1.1,1.1,83,0.00,,BKN041,0.04,VWS V14.00,2013-02-17 02:46:00,
2013-02-16 18:47:00,43.0,38.2,30.24,WNW,292,0.0,1.1,83,0.00,,OVC039,0.04,VWS V14.00,2013-02-17 02:47:00,
2013-02-16 18:50:00,43.0,38.2,30.24,NNE,22,0.0,1.1,83,0.00,,OVC039,0.04,VWS V14.00,2013-02-17 02:50:00,
2013-02-16 18:51:00,42.8,38.0,30.24,SE,135,0.0,1.1,83,0.00,,OVC039,0.04,VWS V14.00,2013-02-17 02:51:00,
2013-02-16 18:52:00,42.8,38.0,30.24,WSW,248,0.0,1.1,83,0.00,,OVC039,0.04,VWS V14.00,2013-02-17 02:52:00,
2013-02-16 18:55:00,42.6,37.8,30.24,ENE,68,0.0,1.1,83,0.00,,OVC039,0.04,VWS V14.00,2013-02-17 02:55:00,
2013-02-16 18:56:00,42.6,37.8,30.24,ENE,68,0.0,1.1,83,0.00,,OVC039,0.04,VWS V14.00,2013-02-17 02:56:00,
2013-02-16 18:57:00,42.4,37.7,30.24,SSW,202,1.1,1.1,83,0.00,,OVC039,0.04,VWS V14.00,2013-02-17 02:57:00,
2013-02-16 19:00:00,42.6,37.8,30.24,NE,45,0.0,1.1,83,0.00,,OVC039,0.04,VWS V14.00,2013-02-17 03:00:00,
2013-02-16 19:01:00,42.6,37.8,30.24,NE,45,0.0,1.1,83,0.00,,OVC039,0.04,VWS V14.00,2013-02-17 03:01:00,
2013-02-16 19:03:00,42.6,37.8,30.24,SSW,202,0.9,1.1,83,0.00,,OVC039,0.04,VWS V14.00,2013-02-17 03:03:00,
2013-02-16 19:05:00,42.6,38.1,30.24,NE,45,0.0,1.1,84,0.00,,OVC039,0.04,VWS V14.00,2013-02-17 03:05:00,
2013-02-16 19:06:00,42.6,38.1,30.24,East,90,0.0,1.1,84,0.00,,OVC039,0.04,VWS V14.00,2013-02-17 03:06:00,
2013-02-16 19:08:00,42.6,38.1,30.24,East,90,0.0,1.1,84,0.00,,OVC039,0.04,VWS V14.00,2013-02-17 03:08:00,
2013-02-16 19:10:00,42.6,38.1,30.24,East,90,0.0,1.1,84,0.00,,OVC039,0.04,VWS V14.00,2013-02-17 03:10:00,
2013-02-16 19:11:00,42.6,38.1,30.24,East,90,0.0,1.1,84,0.00,,OVC039,0.04,VWS V14.00,2013-02-17 03:11:00,
2013-02-16 19:13:00,42.6,38.1,30.24,ESE,112,0.0,1.1,84,0.00,,OVC039,0.04,VWS V14.00,2013-02-17 03:13:00,
2013-02-16 19:15:00,42.6,38.1,30.24,NE,45,0.0,0.9,84,0.00,,OVC039,0.04,VWS V14.00,2013-02-17 03:15:00,
2013-02-16 19:16:00,42.6,38.1,30.24,NE,45,0.0,0.9,84,0.00,,OVC039,0.04,VWS V14.00,2013-02-17 03:16:00,
2013-02-16 19:18:00,42.6,38.1,30.24,West,270,0.0,0.9,84,0.00,,OVC039,0.04,VWS V14.00,2013-02-17 03:18:00,
2013-02-16 19:20:00,42.6,38.1,30.24,NE,45,0.0,0.0,84,0.00,,OVC039,0.04,VWS V14.00,2013-02-17 03:20:00,
2013-02-16 19:21:00,42.6,38.1,30.24,NE,45,0.0,0.0,84,0.00,,OVC039,0.04,VWS V14.00,2013-02-17 03:21:00,
2013-02-16 19:23:00,42.6,38.1,30.24,WNW,292,0.0,0.0,84,0.00,,OVC039,0.04,VWS V14.00,2013-02-17 03:23:00,
2013-02-16 19:25:00,42.4,38.0,30.24,NNW,338,0.0,3.1,84,0.00,,OVC039,0.04,VWS V14.00,2013-02-17 03:25:00,
2013-02-16 19:26:00,42.4,38.0,30.24,NNW,338,0.0,3.1,84,0.00,,OVC039,0.04,VWS V14.00,2013-02-17 03:26:00,
2013-02-16 19:28:00,42.4,38.0,30.24,WNW,292,3.6,3.6,84,0.00,,OVC039,0.04,VWS V14.00,2013-02-17 03:28:00,
2013-02-16 19:30:00,42.4,38.0,30.24,WNW,292,0.0,3.6,84,0.00,,OVC039,0.04,VWS V14.00,2013-02-17 03:30:00,
2013-02-16 19:31:00,42.4,38.0,30.24,WNW,292,0.0,3.6,84,0.00,,OVC039,0.04,VWS V14.00,2013-02-17 03:31:00,
2013-02-16 19:33:00,42.4,38.3,30.24,WNW,292,0.0,3.6,85,0.00,,OVC018,0.04,VWS V14.00,2013-02-17 03:33:00,
2013-02-16 19:35:00,42.3,38.1,30.24,WNW,292,1.3,3.6,85,0.00,,OVC018,0.04,VWS V14.00,2013-02-17 03:35:00,
2013-02-16 19:36:00,42.3,38.1,30.24,WNW,292,0.0,3.6,85,0.00,,OVC018,0.04,VWS V14.00,2013-02-17 03:36:00,
2013-02-16 19:38:00,42.3,38.1,30.24,WNW,292,2.0,3.6,85,0.00,,OVC018,0.04,VWS V14.00,2013-02-17 03:38:00,
2013-02-16 19:40:00,42.3,38.1,30.24,NW,315,0.0,3.6,85,0.00,,OVC018,0.04,VWS V14.00,2013-02-17 03:40:00,
2013-02-16 19:41:00,42.3,38.1,30.24,NW,315,0.0,3.6,85,0.00,,OVC018,0.04,VWS V14.00,2013-02-17 03:41:00,
2013-02-16 19:43:00,42.1,37.9,30.24,WSW,248,0.0,3.6,85,0.00,,OVC018,0.04,VWS V14.00,2013-02-17 03:43:00,
2013-02-16 19:45:00,41.9,37.7,30.24,NNW,338,0.0,3.1,85,0.00,,OVC018,0.04,VWS V14.00,2013-02-17 03:45:00,
2013-02-16 19:46:00,41.9,37.7,30.24,SW,225,0.9,3.1,85,0.00,,OVC018,0.04,VWS V14.00,2013-02-17 03:46:00,
2013-02-16 19:48:00,41.9,37.7,30.24,WSW,248,0.0,3.1,85,0.00,,OVC018,0.04,VWS V14.00,2013-02-17 03:48:00,
2013-02-16 19:50:00,41.7,37.5,30.24,WNW,292,0.0,0.9,85,0.00,,OVC018,0.04,VWS V14.00,2013-02-17 03:50:00,
2013-02-16 19:51:00,41.7,37.5,30.24,WNW,292,1.1,3.4,85,0.00,,OVC018,0.04,VWS V14.00,2013-02-17 03:51:00,
2013-02-16 19:53:00,41.7,37.5,30.24,SSE,158,2.7,3.4,85,0.00,,OVC018,0.04,VWS V14.00,2013-02-17 03:53:00,
2013-02-16 19:55:00,41.5,37.7,30.24,SSE,158,2.2,3.4,86,0.00,,OVC018,0.04,VWS V14.00,2013-02-17 03:55:00,
2013-02-16 19:56:00,41.5,37.7,30.24,SSE,158,2.2,3.4,86,0.00,,OVC018,0.04,VWS V14.00,2013-02-17 03:56:00,
2013-02-16 19:58:00,41.5,37.7,30.24,ENE,68,0.0,6.5,86,0.00,,OVC018,0.04,VWS V14.00,2013-02-17 03:58:00,
2013-02-16 20:00:00,41.5,37.7,30.24,East,90,2.7,6.5,86,0.00,,OVC018,0.04,VWS V14.00,2013-02-17 04:00:00,
2013-02-16 20:01:00,41.5,37.7,30.24,WNW,292,1.1,6.5,86,0.00,,OVC018,0.04,VWS V14.00,2013-02-17 04:01:00,
2013-02-16 20:03:00,41.5,37.7,30.24,WNW,292,3.6,6.5,86,0.00,,OVC018,0.04,VWS V14.00,2013-02-17 04:03:00,
2013-02-16 20:05:00,41.5,37.7,30.24,SE,135,4.0,6.5,86,0.00,,OVC018,0.04,VWS V14.00,2013-02-17 04:05:00,
2013-02-16 20:06:00,41.5,37.7,30.24,WSW,248,1.6,6.5,86,0.00,,OVC018,0.04,VWS V14.00,2013-02-17 04:06:00,
2013-02-16 20:08:00,41.4,37.5,30.24,WSW,248,0.9,6.5,86,0.00,,OVC018,0.04,VWS V14.00,2013-02-17 04:08:00,
2013-02-16 20:10:00,41.4,37.5,30.24,NNE,22,0.0,6.5,86,0.00,,OVC018,0.04,VWS V14.00,2013-02-17 04:10:00,
2013-02-16 20:11:00,41.4,37.5,30.24,NW,315,1.6,6.5,86,0.00,,OVC018,0.04,VWS V14.00,2013-02-17 04:11:00,
2013-02-16 20:13:00,41.4,37.8,30.24,SSW,202,2.0,4.0,87,0.00,,OVC018,0.04,VWS V14.00,2013-02-17 04:13:00,
2013-02-16 20:15:00,41.5,38.0,30.24,ENE,68,2.7,4.0,87,0.00,,OVC018,0.04,VWS V14.00,2013-02-17 04:15:00,
2013-02-16 20:16:00,41.5,38.0,30.24,ESE,112,1.1,3.1,87,0.00,,OVC018,0.04,VWS V14.00,2013-02-17 04:16:00,
2013-02-16 20:18:00,41.5,38.0,30.24,ENE,68,0.0,3.1,87,0.00,,OVC018,0.04,VWS V14.00,2013-02-17 04:18:00,
2013-02-16 20:20:00,41.5,38.0,30.24,ESE,112,0.9,3.1,87,0.00,,OVC018,0.04,VWS V14.00,2013-02-17 04:20:00,
2013-02-16 20:21:00,41.5,38.0,30.24,ESE,112,0.9,3.1,87,0.00,,OVC018,0.04,VWS V14.00,2013-02-17 04:21:00,
2013-02-16 20:23:00,41.5,38.0,30.24,WSW,248,2.0,2.7,87,0.00,,OVC018,0.04,VWS V14.00,2013-02-17 04:23:00,
2013-02-16 20:25:00,41.7,38.1,30.24,WNW,292,1.3,2.7,87,0.00,,OVC018,0.04,VWS V14.00,2013-02-17 04:25:00,
2013-02-16 20:26:00,41.7,38.1,30.24,West,270,1.6,2.7,87,0.00,,OVC018,0.04,VWS V14.00,2013-02-17 04:26:00,
2013-02-16 20:28:00,41.7,38.1,30.24,WNW,292,2.2,2.5,87,0.00,,OVC018,0.04,VWS V14.00,2013-02-17 04:28:00,
2013-02-16 20:31:00,41.7,38.1,30.24,WNW,292,0.0,2.5,87,0.00,,OVC018,0.04,VWS V14.00,2013-02-17 04:31:00,
2013-02-16 20:33:00,42.1,38.5,30.24,ENE,68,0.9,2.5,87,0.00,,OVC060,0.04,VWS V14.00,2013-02-17 04:33:00,
2013-02-16 20:36:00,42.1,38.5,30.24,WSW,248,0.0,2.5,87,0.00,,OVC060,0.04,VWS V14.00,2013-02-17 04:36:00,
2013-02-16 20:38:00,42.1,38.5,30.24,WSW,248,0.0,2.5,87,0.00,,OVC060,0.04,VWS V14.00,2013-02-17 04:38:00,
2013-02-16 20:41:00,42.1,38.5,30.24,WNW,292,0.9,2.5,87,0.00,,OVC060,0.04,VWS V14.00,2013-02-17 04:41:00,
2013-02-16 20:42:00,42.1,38.5,30.24,WNW,292,0.0,2.5,87,0.00,,OVC060,0.04,VWS V14.00,2013-02-17 04:42:00,
2013-02-16 20:43:00,42.1,38.5,30.24,North,0,0.0,2.5,87,0.00,,OVC060,0.04,VWS V14.00,2013-02-17 04:43:00,
2013-02-16 20:46:00,42.1,38.5,30.24,ENE,68,0.0,1.6,87,0.00,,OVC060,0.04,VWS V14.00,2013-02-17 04:46:00,
2013-02-16 20:47:00,42.1,38.5,30.24,ENE,68,0.0,1.6,87,0.00,,OVC060,0.04,VWS V14.00,2013-02-17 04:47:00,
2013-02-16 20:48:00,42.1,38.5,30.24,WSW,248,0.0,1.6,87,0.00,,OVC060,0.04,VWS V14.00,2013-02-17 04:48:00,
2013-02-16 20:51:00,42.1,38.5,30.24,SW,225,0.9,3.4,87,0.00,,OVC060,0.04,VWS V14.00,2013-02-17 04:51:00,
2013-02-16 20:52:00,42.1,38.5,30.24,SW,225,0.9,3.4,87,0.00,,OVC060,0.04,VWS V14.00,2013-02-17 04:52:00,
2013-02-16 20:53:00,42.1,38.5,30.24,NNW,338,0.0,3.4,87,0.00,,OVC060,0.04,VWS V14.00,2013-02-17 04:53:00,
2013-02-16 20:56:00,42.1,38.5,30.24,WNW,292,1.1,3.8,87,0.00,,OVC060,0.04,VWS V14.00,2013-02-17 04:56:00,
2013-02-16 20:57:00,42.1,38.5,30.24,WNW,292,1.1,3.8,87,0.00,,OVC060,0.04,VWS V14.00,2013-02-17 04:57:00,
2013-02-16 20:58:00,42.1,38.5,30.24,WNW,292,0.9,3.8,87,0.00,,OVC060,0.04,VWS V14.00,2013-02-17 04:58:00,
2013-02-16 21:00:00,42.1,38.5,30.24,West,270,0.9,3.8,87,0.00,,OVC060,0.04,VWS V14.00,2013-02-17 05:00:00,
2013-02-16 21:05:00,42.1,38.5,30.24,SE,135,1.1,3.8,87,0.00,,OVC060,0.04,VWS V14.00,2013-02-17 05:05:00,
2013-02-16 21:10:00,42.1,38.5,30.24,WSW,248,0.0,3.8,87,0.00,,OVC060,0.04,VWS V14.00,2013-02-17 05:10:00,
2013-02-16 21:15:00,41.7,38.1,30.27,NNW,338,0.0,1.1,87,0.00,,OVC060,0.04,VWS V14.00,2013-02-17 05:15:00,
2013-02-16 21:20:00,41.4,37.8,30.27,WNW,292,0.0,1.1,87,0.00,,OVC060,0.04,VWS V14.00,2013-02-17 05:20:00,
2013-02-16 21:25:00,41.0,37.4,30.27,NW,315,0.9,0.9,87,0.00,,OVC060,0.04,VWS V14.00,2013-02-17 05:25:00,
2013-02-16 21:30:00,40.8,37.5,30.24,WSW,248,0.0,0.9,88,0.00,,OVC060,0.04,VWS V14.00,2013-02-17 05:30:00,
2013-02-16 21:35:00,40.6,37.4,30.24,ESE,112,0.0,2.0,88,0.00,,OVC060,0.04,VWS V14.00,2013-02-17 05:35:00,
2013-02-16 21:40:00,40.6,37.4,30.24,NNW,338,0.0,2.0,88,0.00,,OVC060,0.04,VWS V14.00,2013-02-17 05:40:00,
2013-02-16 21:45:00,40.6,37.4,30.24,WSW,248,0.0,2.0,88,0.00,,OVC060,0.04,VWS V14.00,2013-02-17 05:45:00,
2013-02-16 21:50:00,40.5,37.2,30.24,NNE,22,0.0,1.6,88,0.00,,FEW060,0.04,VWS V14.00,2013-02-17 05:50:00,
2013-02-16 21:55:00,40.5,37.5,30.24,WNW,292,0.0,0.0,89,0.00,,FEW060,0.04,VWS V14.00,2013-02-17 05:55:00,
2013-02-16 22:00:00,40.3,37.3,30.24,WSW,248,0.0,0.0,89,0.00,,FEW060,0.04,VWS V14.00,2013-02-17 06:00:00,
2013-02-16 22:05:00,40.3,37.3,30.24,WSW,248,0.0,0.0,89,0.00,,FEW060,0.04,VWS V14.00,2013-02-17 06:05:00,
2013-02-16 22:06:00,40.3,37.3,30.24,East,90,0.0,0.0,89,0.00,,FEW060,0.04,VWS V14.00,2013-02-17 06:06:00,
2013-02-16 22:10:00,40.3,37.3,30.24,WSW,248,0.0,0.0,89,0.00,,FEW060,0.04,VWS V14.00,2013-02-17 06:10:00,
2013-02-16 22:11:00,40.3,37.3,30.24,WSW,248,0.0,0.0,89,0.00,,FEW060,0.04,VWS V14.00,2013-02-17 06:11:00,
2013-02-16 22:15:00,40.5,37.5,30.27,SSW,202,2.7,2.7,89,0.00,,FEW060,0.04,VWS V14.00,2013-02-17 06:15:00,
2013-02-16 22:16:00,40.5,37.5,30.27,SW,225,0.0,2.7,89,0.00,,FEW060,0.04,VWS V14.00,2013-02-17 06:16:00,
2013-02-16 22:20:00,40.5,37.5,30.27,East,90,2.2,2.7,89,0.00,,FEW060,0.04,VWS V14.00,2013-02-17 06:20:00,
2013-02-16 22:21:00,40.5,37.5,30.27,East,90,2.2,2.7,89,0.00,,FEW060,0.04,VWS V14.00,2013-02-17 06:21:00,
2013-02-16 22:25:00,40.6,37.7,30.27,NNE,22,1.1,2.7,89,0.00,,FEW060,0.04,VWS V14.00,2013-02-17 06:25:00,
2013-02-16 22:26:00,40.6,37.7,30.27,NNE,22,1.1,2.7,89,0.00,,FEW060,0.04,VWS V14.00,2013-02-17 06:26:00,
2013-02-16 22:30:00,40.6,37.7,30.27,ENE,68,0.0,2.7,89,0.00,,FEW060,0.04,VWS V14.00,2013-02-17 06:30:00,
2013-02-16 22:31:00,40.6,37.7,30.27,ENE,68,0.0,2.7,89,0.00,,FEW060,0.04,VWS V14.00,2013-02-17 06:31:00,
2013-02-16 22:35:00,40.6,37.9,30.27,ENE,68,0.0,2.2,90,0.00,,BKN055,0.04,VWS V14.00,2013-02-17 06:35:00,
2013-02-16 22:36:00,40.6,37.9,30.27,ENE,68,0.0,2.2,90,0.00,,BKN055,0.04,VWS V14.00,2013-02-17 06:36:00,
2013-02-16 22:40:00,40.6,37.9,30.27,ENE,68,0.0,1.3,90,0.00,,BKN055,0.04,VWS V14.00,2013-02-17 06:40:00,
2013-02-16 22:41:00,40.6,37.9,30.27,ENE,68,0.0,1.3,90,0.00,,BKN055,0.04,VWS V14.00,2013-02-17 06:41:00,
2013-02-16 22:45:00,40.6,38.2,30.27,East,90,0.0,2.0,91,0.00,,BKN055,0.04,VWS V14.00,2013-02-17 06:45:00,
2013-02-16 22:46:00,40.6,38.2,30.27,East,90,0.0,2.0,91,0.00,,BKN055,0.04,VWS V14.00,2013-02-17 06:46:00,
2013-02-16 22:51:00,40.5,37.8,30.27,ESE,112,0.0,2.0,90,0.00,,OVC055,0.04,VWS V14.00,2013-02-17 06:51:00,
2013-02-16 22:56:00,40.3,37.6,30.27,ESE,112,0.0,2.0,90,0.00,,OVC055,0.04,VWS V14.00,2013-02-17 06:56:00,
2013-02-16 23:01:00,40.1,37.4,30.27,ESE,112,0.0,0.9,90,0.00,,OVC055,0.04,VWS V14.00,2013-02-17 07:01:00,
2013-02-16 23:06:00,39.7,37.0,30.27,ENE,68,0.0,0.9,90,0.00,,OVC055,0.04,VWS V14.00,2013-02-17 07:06:00,
2013-02-16 23:11:00,39.7,37.3,30.27,WNW,292,0.9,0.9,91,0.00,,OVC055,0.04,VWS V14.00,2013-02-17 07:11:00,
2013-02-16 23:16:00,39.6,37.2,30.27,WNW,292,0.9,0.9,91,0.00,,OVC055,0.04,VWS V14.00,2013-02-17 07:16:00,
2013-02-16 23:21:00,39.6,37.2,30.27,ENE,68,0.0,0.9,91,0.00,,OVC055,0.04,VWS V14.00,2013-02-17 07:21:00,
2013-02-16 23:26:00,39.4,36.7,30.27,WSW,248,0.0,1.1,90,0.00,,OVC055,0.04,VWS V14.00,2013-02-17 07:26:00,
2013-02-16 23:31:00,39.4,36.7,30.27,WSW,248,0.0,1.1,90,0.00,,OVC055,0.04,VWS V14.00,2013-02-17 07:31:00,
2013-02-16 23:36:00,39.4,36.7,30.27,WSW,248,0.0,1.1,90,0.00,,FEW055,0.04,VWS V14.00,2013-02-17 07:36:00,
2013-02-16 23:41:00,39.0,36.6,30.27,WNW,292,0.0,1.1,91,0.00,,FEW055,0.04,VWS V14.00,2013-02-17 07:41:00,
2013-02-16 23:46:00,38.8,36.4,30.27,West,270,0.0,0.0,91,0.00,,FEW055,0.04,VWS V14.00,2013-02-17 07:46:00,
2013-02-16 23:51:00,39.0,36.6,30.27,ENE,68,0.0,1.1,91,0.00,,CLR,0.04,VWS V14.00,2013-02-17 07:51:00,
2013-02-16 23:56:00,38.7,36.3,30.27,ENE,68,0.0,1.1,91,0.00,,CLR,0.04,VWS V14.00,2013-02-17 07:56:00,